GEFSSGP_prec_meanprecacc_192.txt.gz
Total_Precipitation_Accumulation
1.74 1.75 2.07 2.77 3.20 2.73 2.27 1.79 1.50 1.43 1.30 1.09 0.84 0.80 0.96 1.32 1.71 2.01 2.23 2.08 1.42 1.11 1.12 1.62 2.11 1.95 1.61 1.38 1.32 1.33 1.27 1.30 1.21 1.11 0.97 0.88 0.79 0.73 0.62 0.48 0.46 0.48 0.43 0.40 0.43 0.54 0.54 0.51 0.60
1.17 2.03 2.63 3.34 2.87 2.22 2.05 1.73 1.58 1.36 1.01 0.85 0.63 0.54 0.64 0.69 0.72 1.11 2.10 2.11 1.32 1.05 1.03 1.21 1.74 1.67 1.41 1.25 1.27 1.30 1.25 1.33 1.28 1.07 0.89 0.76 0.75 0.77 0.65 0.58 0.64 0.50 0.42 0.39 0.44 0.54 0.58 0.58 0.62
1.29 2.36 3.19 3.35 2.25 1.95 1.98 1.77 1.45 1.08 0.76 0.72 0.62 0.55 0.69 0.86 0.89 1.28 1.92 1.58 1.14 1.05 1.04 1.38 1.74 1.63 1.44 1.28 1.35 1.41 1.33 1.34 1.20 0.94 0.76 0.72 0.76 0.80 0.79 0.79 0.74 0.50 0.41 0.37 0.42 0.53 0.60 0.62 0.63
1.61 2.63 2.90 2.60 2.05 1.69 1.63 1.55 1.13 0.91 0.71 0.50 0.54 0.59 0.64 0.91 0.91 1.18 1.28 1.10 0.97 1.03 1.01 1.29 1.63 1.59 1.46 1.34 1.38 1.42 1.43 1.40 1.28 1.02 0.83 0.80 0.82 0.81 0.80 0.86 0.74 0.62 0.52 0.44 0.47 0.56 0.62 0.62 0.61
2.04 2.76 2.66 2.24 2.01 1.65 1.40 1.15 0.90 0.86 0.77 0.56 0.49 0.70 0.95 1.23 1.12 1.10 1.05 1.00 0.86 0.92 0.89 1.03 1.41 1.46 1.35 1.32 1.45 1.51 1.52 1.49 1.41 1.17 0.99 0.88 0.82 0.81 0.83 0.89 0.76 0.71 0.63 0.59 0.61 0.65 0.65 0.64 0.65
2.37 2.47 2.59 2.23 2.04 1.76 1.64 1.18 0.98 0.90 0.71 0.59 0.58 0.81 1.22 1.47 1.33 1.23 1.10 1.13 1.11 1.07 0.95 0.88 1.16 1.27 1.24 1.26 1.37 1.41 1.41 1.37 1.32 1.15 1.00 0.92 0.88 0.85 0.92 0.98 0.87 0.79 0.69 0.63 0.65 0.69 0.73 0.74 0.70
2.31 2.38 2.40 1.91 1.98 2.13 1.78 1.15 1.05 0.92 0.81 0.65 0.52 0.88 1.27 1.56 1.42 1.23 1.19 1.22 1.31 1.22 1.13 0.98 0.98 1.07 1.24 1.35 1.35 1.28 1.20 1.19 1.16 1.05 1.00 0.94 0.90 0.84 0.87 0.91 0.85 0.83 0.82 0.78 0.72 0.76 0.81 0.73 0.72
1.77 1.94 1.95 1.87 1.99 2.23 1.53 1.02 0.80 0.77 0.70 0.52 0.48 0.84 1.17 1.23 1.21 1.19 1.35 1.47 1.59 1.41 1.20 1.00 0.92 0.95 1.02 1.11 1.22 1.28 1.26 1.20 1.16 1.03 0.93 0.89 0.84 0.75 0.78 0.74 0.72 0.78 0.90 0.96 0.90 0.86 0.80 0.74 0.73
1.67 2.07 2.27 2.26 1.98 1.77 1.07 0.85 0.73 0.58 0.63 0.60 0.48 0.52 0.67 0.76 0.93 1.09 1.16 1.30 1.39 1.19 1.06 1.06 1.02 1.04 1.07 1.02 1.06 1.24 1.30 1.28 1.13 1.04 0.98 0.88 0.68 0.60 0.66 0.63 0.75 0.85 1.01 1.08 1.05 1.01 0.89 0.77 0.67
1.71 2.19 2.21 1.70 1.40 1.17 0.81 0.74 0.67 0.70 0.77 0.71 0.55 0.56 0.68 0.73 0.92 1.06 0.98 0.98 0.90 0.87 0.86 0.90 0.93 1.03 1.07 0.98 1.21 1.42 1.27 1.13 0.90 0.91 0.82 0.80 0.74 0.71 0.59 0.63 0.83 0.97 1.02 1.00 1.04 1.08 0.93 0.72 0.53
1.39 1.76 1.57 1.36 1.08 0.84 0.73 0.75 0.63 0.69 0.80 0.70 0.58 0.60 0.79 0.89 0.90 0.86 0.79 0.79 0.73 0.76 0.75 0.70 0.74 0.83 0.93 1.08 1.34 1.60 1.64 1.42 1.20 1.00 0.92 0.89 0.78 0.69 0.64 0.63 0.70 0.77 0.81 0.72 0.78 0.82 0.68 0.58 0.56
1.20 1.13 1.13 1.29 1.02 0.87 0.72 0.72 0.72 0.65 0.64 0.57 0.51 0.55 0.74 0.92 0.94 0.79 0.65 0.59 0.57 0.61 0.69 0.55 0.50 0.64 0.76 0.88 1.02 1.28 1.36 1.29 1.14 0.95 0.87 0.93 0.87 0.76 0.73 0.70 0.75 0.75 0.74 0.80 0.83 0.87 0.79 0.64 0.58
1.43 1.22 1.01 0.99 1.01 0.96 0.75 0.73 0.73 0.65 0.53 0.50 0.54 0.67 0.75 0.77 0.74 0.67 0.58 0.52 0.53 0.60 0.68 0.62 0.52 0.52 0.56 0.62 0.70 0.83 1.01 1.12 1.10 1.02 0.85 0.85 0.83 0.79 0.80 0.75 0.79 0.71 0.70 0.79 0.85 0.84 0.85 0.78 0.66
1.27 1.13 1.10 1.05 0.97 0.92 0.91 0.71 0.71 0.81 0.60 0.54 0.63 0.74 0.73 0.66 0.62 0.68 0.62 0.56 0.51 0.54 0.67 0.67 0.57 0.52 0.53 0.53 0.53 0.53 0.69 0.85 1.00 0.98 0.87 0.88 0.88 0.83 0.87 0.83 0.83 0.80 0.75 0.78 0.94 0.88 0.92 0.91 0.84
1.19 1.32 1.23 1.08 0.98 0.93 0.92 0.97 0.85 0.79 0.66 0.63 0.65 0.66 0.67 0.62 0.59 0.67 0.64 0.55 0.50 0.49 0.54 0.61 0.57 0.59 0.62 0.63 0.64 0.53 0.57 0.65 0.78 0.89 0.87 0.93 0.88 0.80 0.84 0.85 0.83 0.82 0.83 0.83 0.88 0.91 0.97 0.89 0.84
1.42 1.55 1.59 1.26 1.09 0.95 0.98 1.22 1.06 0.87 0.73 0.75 0.72 0.64 0.64 0.60 0.56 0.60 0.60 0.57 0.53 0.53 0.56 0.61 0.60 0.65 0.71 0.75 0.78 0.73 0.77 0.81 0.82 0.95 0.91 0.86 0.89 0.86 0.86 0.90 0.92 0.96 0.99 0.96 0.97 1.01 1.04 1.00 0.99
1.54 1.51 1.36 1.18 0.96 0.86 0.90 1.04 1.02 0.96 0.80 0.71 0.65 0.55 0.50 0.43 0.41 0.43 0.45 0.46 0.49 0.49 0.51 0.54 0.62 0.66 0.67 0.74 0.86 0.99 1.04 1.04 1.00 1.04 0.99 0.88 0.87 0.92 1.03 1.07 1.12 1.10 1.11 1.14 1.10 1.12 1.05 1.05 1.06
1.50 1.18 0.99 0.89 0.87 0.82 0.74 0.79 0.82 0.87 0.79 0.62 0.51 0.44 0.39 0.31 0.29 0.29 0.29 0.31 0.36 0.39 0.43 0.47 0.54 0.71 0.83 0.89 0.92 1.08 1.14 1.21 1.30 1.35 1.23 1.09 1.10 1.23 1.37 1.46 1.40 1.39 1.38 1.37 1.33 1.42 1.31 1.13 1.13
1.09 1.00 0.91 0.78 0.76 0.78 0.69 0.65 0.66 0.68 0.67 0.57 0.44 0.35 0.32 0.25 0.18 0.18 0.18 0.21 0.23 0.26 0.32 0.37 0.43 0.59 0.72 0.81 0.92 1.11 1.29 1.46 1.62 1.74 1.63 1.49 1.45 1.61 1.72 1.65 1.74 1.77 1.64 1.63 1.68 1.75 1.70 1.44 1.30
0.94 0.93 0.83 0.71 0.61 0.58 0.55 0.55 0.56 0.54 0.54 0.46 0.37 0.29 0.23 0.17 0.13 0.10 0.09 0.11 0.14 0.16 0.21 0.26 0.33 0.44 0.56 0.71 0.94 1.16 1.46 1.55 1.64 1.78 1.82 1.76 1.69 1.84 1.88 1.96 2.02 2.06 2.05 2.01 1.90 1.98 2.08 1.81 1.60
0.74 0.79 0.74 0.65 0.55 0.49 0.45 0.52 0.51 0.47 0.45 0.41 0.32 0.25 0.19 0.14 0.11 0.07 0.07 0.07 0.11 0.11 0.13 0.20 0.31 0.45 0.67 0.89 1.21 1.50 1.73 1.81 1.86 1.82 1.88 1.97 2.02 2.08 2.10 2.16 2.22 2.22 2.07 2.06 2.15 2.24 2.57 2.39 2.04
0.70 0.53 0.48 0.44 0.47 0.48 0.44 0.59 0.44 0.38 0.39 0.35 0.32 0.30 0.23 0.17 0.12 0.09 0.08 0.08 0.10 0.12 0.16 0.27 0.44 0.63 0.90 1.24 1.59 1.82 2.05 2.15 2.00 1.98 2.02 2.03 1.98 2.01 2.12 2.14 2.13 2.10 2.04 2.10 2.16 2.19 2.57 2.75 2.45
0.47 0.39 0.46 0.44 0.40 0.35 0.27 0.36 0.34 0.33 0.41 0.33 0.27 0.28 0.28 0.24 0.18 0.15 0.16 0.16 0.20 0.26 0.33 0.49 0.73 1.03 1.30 1.53 1.71 1.92 2.05 2.07 2.05 2.02 2.01 1.94 1.91 1.87 1.91 1.93 2.01 2.04 2.09 2.14 2.30 2.40 2.62 2.65 2.65
0.33 0.40 0.50 0.50 0.46 0.41 0.23 0.28 0.36 0.34 0.34 0.30 0.26 0.24 0.23 0.22 0.22 0.22 0.24 0.30 0.38 0.43 0.56 0.74 0.91 1.20 1.38 1.49 1.61 1.80 1.95 1.99 2.01 1.99 1.99 1.98 1.95 1.85 1.79 1.76 1.82 1.94 2.11 2.17 2.25 2.38 2.61 2.71 2.79
0.32 0.49 0.71 0.75 0.69 0.49 0.25 0.36 0.45 0.38 0.30 0.25 0.24 0.25 0.23 0.27 0.30 0.30 0.39 0.53 0.62 0.66 0.75 0.89 0.96 1.13 1.25 1.30 1.38 1.53 1.60 1.67 1.72 1.71 1.67 1.62 1.57 1.56 1.58 1.66 1.75 1.89 2.01 2.09 2.21 2.35 2.39 2.50 2.73
0.28 0.40 0.67 0.76 0.65 0.47 0.36 0.56 0.56 0.39 0.32 0.28 0.26 0.24 0.28 0.38 0.46 0.56 0.68 0.78 0.85 0.86 0.83 0.84 0.97 1.02 0.99 1.03 1.04 1.16 1.26 1.32 1.39 1.39 1.38 1.41 1.45 1.45 1.39 1.43 1.53 1.77 1.97 2.05 2.14 2.16 2.13 2.18 2.36
0.25 0.28 0.33 0.49 0.44 0.45 0.45 0.69 0.66 0.40 0.33 0.30 0.28 0.30 0.37 0.52 0.70 0.92 1.09 1.20 1.27 1.18 0.99 0.85 0.86 0.85 0.82 0.87 0.92 0.97 1.06 1.11 1.15 1.18 1.14 1.23 1.27 1.25 1.20 1.22 1.26 1.39 1.62 1.88 2.04 1.98 1.90 1.87 2.02
0.23 0.30 0.38 0.57 0.70 0.66 0.62 0.77 0.75 0.55 0.45 0.37 0.39 0.50 0.67 0.87 1.13 1.38 1.61 1.73 1.70 1.51 1.24 0.96 0.80 0.76 0.72 0.75 0.81 0.87 0.91 0.93 0.92 0.96 0.91 0.97 1.06 1.05 1.05 1.05 1.10 1.23 1.33 1.54 1.78 1.88 1.83 1.80 1.85
0.25 0.36 0.45 0.58 0.65 0.84 0.95 1.00 0.81 0.73 0.67 0.64 0.71 0.89 1.11 1.38 1.56 1.70 1.85 1.88 1.63 1.44 1.20 0.93 0.78 0.81 0.81 0.80 0.80 0.81 0.79 0.77 0.76 0.76 0.73 0.76 0.82 0.81 0.85 1.02 1.08 1.15 1.22 1.40 1.65 1.83 1.84 1.77 1.77
0.36 0.53 0.69 0.95 0.88 0.85 1.06 1.13 0.83 0.76 0.82 0.86 0.97 1.03 1.13 1.29 1.30 1.38 1.44 1.39 1.34 1.30 1.12 0.96 0.87 0.88 0.91 0.90 0.88 0.80 0.72 0.69 0.69 0.66 0.60 0.61 0.59 0.58 0.70 0.84 0.88 0.92 0.97 1.15 1.44 1.64 1.68 1.65 1.56

GEFSSGP_prec_meanprecacc_198.txt.gz
Total_Precipitation_Accumulation
1.88 1.82 2.14 2.85 3.26 2.78 2.32 1.84 1.54 1.47 1.34 1.11 0.86 0.83 0.98 1.34 1.74 2.03 2.28 2.16 1.48 1.16 1.19 1.73 2.23 2.04 1.68 1.45 1.38 1.39 1.32 1.34 1.24 1.14 1.00 0.91 0.82 0.76 0.65 0.51 0.50 0.52 0.48 0.44 0.46 0.56 0.57 0.58 0.72
1.31 2.07 2.68 3.40 2.93 2.26 2.09 1.77 1.63 1.40 1.05 0.87 0.64 0.57 0.68 0.71 0.74 1.13 2.15 2.22 1.39 1.10 1.11 1.30 1.84 1.76 1.48 1.31 1.31 1.34 1.28 1.37 1.30 1.10 0.93 0.80 0.79 0.79 0.68 0.61 0.68 0.54 0.46 0.42 0.46 0.57 0.61 0.64 0.75
1.37 2.39 3.24 3.40 2.30 1.99 2.03 1.84 1.50 1.11 0.78 0.74 0.64 0.58 0.72 0.90 0.91 1.30 1.96 1.65 1.22 1.11 1.12 1.47 1.84 1.71 1.51 1.33 1.39 1.43 1.35 1.36 1.22 0.97 0.79 0.75 0.80 0.82 0.82 0.82 0.77 0.53 0.44 0.39 0.44 0.56 0.63 0.66 0.72
1.63 2.66 2.93 2.64 2.09 1.71 1.66 1.62 1.20 0.95 0.74 0.53 0.56 0.62 0.66 0.94 0.93 1.21 1.33 1.15 1.01 1.08 1.08 1.38 1.71 1.65 1.51 1.36 1.39 1.43 1.44 1.41 1.30 1.04 0.86 0.83 0.86 0.83 0.82 0.88 0.75 0.64 0.55 0.47 0.49 0.58 0.64 0.65 0.69
2.07 2.80 2.71 2.29 2.04 1.66 1.41 1.19 0.97 0.90 0.80 0.58 0.53 0.75 1.01 1.28 1.16 1.13 1.09 1.04 0.88 0.94 0.93 1.10 1.49 1.52 1.40 1.34 1.48 1.53 1.53 1.51 1.44 1.19 1.01 0.91 0.85 0.83 0.84 0.90 0.78 0.72 0.65 0.61 0.64 0.68 0.68 0.68 0.72
2.39 2.49 2.64 2.28 2.08 1.78 1.67 1.22 1.03 0.94 0.74 0.62 0.62 0.86 1.32 1.57 1.38 1.26 1.13 1.17 1.13 1.08 0.97 0.93 1.22 1.32 1.28 1.30 1.39 1.43 1.45 1.40 1.36 1.18 1.01 0.94 0.90 0.86 0.92 0.98 0.88 0.82 0.71 0.65 0.68 0.71 0.77 0.79 0.77
2.33 2.41 2.45 1.96 2.01 2.16 1.83 1.19 1.10 0.95 0.85 0.68 0.56 0.95 1.37 1.68 1.47 1.26 1.22 1.25 1.33 1.24 1.15 1.01 1.02 1.10 1.29 1.38 1.36 1.30 1.22 1.20 1.17 1.06 1.01 0.94 0.91 0.85 0.88 0.92 0.86 0.86 0.85 0.80 0.75 0.78 0.85 0.81 0.81
1.79 1.97 1.99 1.91 2.04 2.27 1.59 1.07 0.85 0.80 0.74 0.55 0.50 0.89 1.25 1.29 1.24 1.21 1.36 1.49 1.61 1.42 1.22 1.02 0.95 1.00 1.06 1.13 1.23 1.28 1.26 1.22 1.18 1.04 0.94 0.90 0.85 0.75 0.79 0.75 0.74 0.82 0.94 1.01 0.94 0.92 0.90 0.89 0.83
1.68 2.09 2.31 2.30 2.04 1.82 1.12 0.90 0.78 0.61 0.66 0.64 0.50 0.56 0.72 0.81 0.94 1.10 1.17 1.32 1.41 1.19 1.07 1.07 1.03 1.07 1.10 1.04 1.07 1.25 1.31 1.30 1.14 1.05 0.98 0.88 0.69 0.60 0.67 0.64 0.77 0.89 1.06 1.13 1.15 1.13 1.06 0.96 0.79
1.72 2.22 2.24 1.74 1.46 1.22 0.86 0.78 0.71 0.75 0.80 0.75 0.58 0.59 0.70 0.75 0.92 1.07 0.98 0.99 0.91 0.87 0.86 0.90 0.94 1.04 1.08 0.99 1.21 1.42 1.28 1.13 0.91 0.91 0.83 0.80 0.74 0.71 0.59 0.64 0.84 0.99 1.05 1.05 1.16 1.25 1.10 0.85 0.61
1.41 1.79 1.58 1.38 1.13 0.90 0.77 0.78 0.67 0.73 0.85 0.74 0.60 0.62 0.81 0.90 0.91 0.88 0.80 0.80 0.73 0.77 0.75 0.70 0.74 0.83 0.94 1.08 1.35 1.61 1.65 1.42 1.21 1.01 0.92 0.89 0.78 0.70 0.65 0.64 0.71 0.78 0.82 0.74 0.81 0.86 0.72 0.61 0.58
1.21 1.15 1.14 1.30 1.05 0.91 0.76 0.75 0.75 0.69 0.70 0.61 0.53 0.57 0.76 0.94 0.96 0.81 0.66 0.59 0.57 0.62 0.69 0.56 0.50 0.64 0.77 0.89 1.03 1.29 1.36 1.30 1.15 0.97 0.88 0.93 0.88 0.77 0.73 0.70 0.75 0.77 0.75 0.81 0.84 0.88 0.80 0.64 0.59
1.45 1.24 1.03 1.00 1.04 1.01 0.81 0.77 0.76 0.68 0.58 0.53 0.56 0.69 0.77 0.78 0.76 0.69 0.59 0.52 0.53 0.60 0.68 0.62 0.52 0.52 0.57 0.63 0.71 0.84 1.02 1.13 1.10 1.03 0.86 0.85 0.84 0.80 0.81 0.76 0.80 0.72 0.71 0.80 0.86 0.85 0.87 0.79 0.67
1.29 1.15 1.12 1.06 0.99 0.97 0.95 0.75 0.74 0.85 0.64 0.57 0.65 0.76 0.75 0.68 0.64 0.70 0.62 0.56 0.51 0.54 0.67 0.67 0.57 0.52 0.53 0.53 0.53 0.54 0.69 0.85 1.00 0.99 0.88 0.89 0.89 0.84 0.88 0.85 0.84 0.82 0.76 0.79 0.95 0.89 0.93 0.91 0.85
1.21 1.34 1.24 1.10 1.01 0.98 0.97 1.01 0.89 0.83 0.69 0.66 0.68 0.68 0.70 0.64 0.61 0.69 0.65 0.55 0.50 0.49 0.54 0.61 0.57 0.59 0.62 0.63 0.64 0.54 0.58 0.65 0.79 0.91 0.90 0.95 0.89 0.81 0.85 0.87 0.84 0.83 0.84 0.84 0.89 0.92 0.98 0.90 0.85
1.45 1.58 1.62 1.29 1.11 0.97 1.02 1.27 1.12 0.90 0.75 0.77 0.74 0.66 0.66 0.62 0.57 0.61 0.61 0.58 0.54 0.54 0.57 0.61 0.61 0.65 0.71 0.75 0.78 0.73 0.78 0.81 0.83 0.96 0.93 0.89 0.91 0.88 0.88 0.92 0.93 0.97 1.00 0.98 0.98 1.01 1.04 1.00 0.99
1.58 1.54 1.38 1.21 0.98 0.88 0.92 1.09 1.08 1.00 0.82 0.72 0.66 0.57 0.51 0.45 0.43 0.44 0.45 0.47 0.50 0.50 0.51 0.54 0.63 0.66 0.68 0.74 0.86 1.00 1.04 1.05 1.02 1.06 1.01 0.91 0.89 0.94 1.05 1.08 1.13 1.10 1.12 1.14 1.10 1.12 1.06 1.05 1.07
1.52 1.22 1.01 0.92 0.89 0.84 0.76 0.83 0.88 0.92 0.82 0.63 0.52 0.45 0.41 0.33 0.31 0.31 0.30 0.32 0.38 0.41 0.44 0.48 0.56 0.72 0.84 0.90 0.92 1.08 1.14 1.22 1.31 1.36 1.24 1.10 1.12 1.24 1.39 1.47 1.41 1.39 1.39 1.38 1.34 1.42 1.31 1.13 1.13
1.11 1.03 0.93 0.80 0.79 0.81 0.71 0.68 0.72 0.73 0.72 0.60 0.46 0.37 0.33 0.27 0.20 0.19 0.19 0.22 0.25 0.28 0.34 0.40 0.45 0.61 0.74 0.82 0.93 1.11 1.29 1.46 1.62 1.74 1.64 1.50 1.45 1.62 1.73 1.66 1.74 1.77 1.65 1.64 1.68 1.75 1.70 1.44 1.31
0.97 0.96 0.85 0.73 0.65 0.63 0.59 0.59 0.61 0.58 0.58 0.49 0.38 0.31 0.24 0.18 0.15 0.11 0.09 0.12 0.15 0.18 0.22 0.27 0.34 0.45 0.58 0.72 0.95 1.16 1.46 1.55 1.64 1.78 1.82 1.76 1.69 1.85 1.88 1.96 2.03 2.06 2.05 2.02 1.90 1.98 2.08 1.82 1.60
0.77 0.82 0.76 0.67 0.58 0.53 0.50 0.57 0.56 0.50 0.48 0.43 0.33 0.26 0.20 0.14 0.11 0.08 0.07 0.07 0.12 0.13 0.14 0.21 0.32 0.46 0.67 0.90 1.22 1.50 1.73 1.81 1.86 1.82 1.88 1.97 2.02 2.08 2.10 2.16 2.22 2.22 2.07 2.07 2.15 2.25 2.58 2.39 2.04
0.73 0.55 0.51 0.47 0.50 0.52 0.47 0.65 0.49 0.41 0.41 0.37 0.33 0.30 0.23 0.17 0.12 0.09 0.09 0.09 0.10 0.13 0.17 0.28 0.45 0.64 0.91 1.25 1.60 1.83 2.06 2.15 2.00 1.98 2.02 2.03 1.98 2.01 2.12 2.14 2.13 2.10 2.04 2.10 2.16 2.20 2.57 2.76 2.46
0.50 0.43 0.49 0.47 0.43 0.37 0.30 0.40 0.38 0.35 0.42 0.34 0.27 0.28 0.28 0.24 0.18 0.15 0.17 0.17 0.20 0.26 0.33 0.49 0.74 1.03 1.31 1.53 1.72 1.93 2.06 2.07 2.05 2.02 2.01 1.94 1.91 1.87 1.91 1.93 2.01 2.04 2.09 2.14 2.30 2.40 2.63 2.65 2.65
0.36 0.43 0.53 0.52 0.48 0.44 0.25 0.30 0.38 0.35 0.34 0.30 0.26 0.24 0.23 0.22 0.22 0.23 0.25 0.31 0.38 0.43 0.56 0.74 0.91 1.20 1.38 1.49 1.61 1.80 1.95 1.99 2.01 2.00 1.99 1.98 1.95 1.86 1.79 1.76 1.82 1.94 2.11 2.17 2.25 2.38 2.61 2.71 2.79
0.35 0.52 0.73 0.78 0.71 0.51 0.26 0.38 0.46 0.39 0.31 0.25 0.24 0.25 0.23 0.27 0.30 0.30 0.39 0.54 0.62 0.66 0.75 0.89 0.96 1.14 1.25 1.30 1.38 1.53 1.60 1.67 1.72 1.71 1.67 1.62 1.57 1.56 1.58 1.66 1.76 1.89 2.01 2.09 2.21 2.35 2.39 2.50 2.73
0.30 0.41 0.70 0.79 0.68 0.49 0.37 0.57 0.57 0.39 0.32 0.28 0.26 0.24 0.28 0.38 0.46 0.56 0.69 0.78 0.85 0.86 0.83 0.84 0.97 1.02 1.00 1.03 1.04 1.16 1.26 1.32 1.39 1.39 1.39 1.42 1.45 1.46 1.39 1.43 1.53 1.77 1.97 2.05 2.14 2.16 2.13 2.18 2.36
0.27 0.30 0.35 0.51 0.46 0.47 0.47 0.70 0.67 0.40 0.33 0.30 0.28 0.30 0.37 0.52 0.71 0.92 1.10 1.20 1.27 1.18 0.99 0.85 0.86 0.85 0.82 0.88 0.92 0.97 1.07 1.12 1.15 1.18 1.14 1.23 1.27 1.25 1.20 1.22 1.26 1.39 1.63 1.88 2.04 1.98 1.90 1.87 2.02
0.24 0.32 0.40 0.61 0.74 0.69 0.64 0.80 0.77 0.56 0.45 0.37 0.39 0.50 0.67 0.87 1.14 1.39 1.62 1.73 1.70 1.51 1.24 0.96 0.80 0.76 0.73 0.75 0.81 0.87 0.92 0.93 0.92 0.96 0.91 0.97 1.06 1.05 1.05 1.06 1.10 1.23 1.34 1.55 1.78 1.88 1.83 1.80 1.85
0.26 0.37 0.46 0.60 0.67 0.86 0.97 1.02 0.82 0.74 0.67 0.64 0.71 0.89 1.11 1.38 1.56 1.71 1.86 1.89 1.63 1.44 1.20 0.93 0.79 0.81 0.81 0.80 0.80 0.81 0.79 0.78 0.77 0.76 0.74 0.76 0.82 0.81 0.85 1.02 1.08 1.15 1.23 1.40 1.66 1.83 1.84 1.77 1.77
0.36 0.54 0.70 0.97 0.91 0.87 1.08 1.16 0.85 0.78 0.83 0.86 0.98 1.03 1.13 1.29 1.31 1.39 1.45 1.40 1.35 1.30 1.12 0.96 0.87 0.88 0.91 0.90 0.88 0.81 0.73 0.70 0.69 0.67 0.60 0.61 0.59 0.58 0.70 0.84 0.89 0.92 0.97 1.15 1.45 1.64 1.68 1.65 1.56

GEFSSGP_prec_meanprecacc_204.txt.gz
Total_Precipitation_Accumulation
1.92 1.88 2.27 3.02 3.46 3.00 2.53 1.98 1.64 1.55 1.36 1.12 0.87 0.84 1.02 1.40 1.83 2.13 2.38 2.25 1.56 1.22 1.24 1.79 2.30 2.11 1.73 1.49 1.44 1.45 1.37 1.39 1.29 1.19 1.03 0.93 0.84 0.77 0.67 0.53 0.54 0.55 0.52 0.48 0.49 0.60 0.59 0.60 0.76
1.43 2.20 2.83 3.58 3.15 2.51 2.26 1.88 1.71 1.46 1.06 0.87 0.65 0.60 0.71 0.74 0.77 1.18 2.23 2.28 1.44 1.14 1.17 1.36 1.90 1.82 1.52 1.35 1.35 1.39 1.33 1.41 1.34 1.14 0.98 0.83 0.81 0.82 0.71 0.63 0.72 0.59 0.50 0.46 0.50 0.61 0.64 0.67 0.79
1.58 2.55 3.37 3.57 2.49 2.20 2.19 1.92 1.55 1.15 0.79 0.75 0.65 0.59 0.74 0.93 0.94 1.34 2.02 1.70 1.26 1.14 1.17 1.52 1.88 1.75 1.55 1.38 1.43 1.46 1.38 1.39 1.24 0.99 0.82 0.77 0.82 0.85 0.84 0.84 0.81 0.58 0.47 0.42 0.47 0.58 0.65 0.69 0.77
1.85 2.81 3.03 2.78 2.25 1.83 1.75 1.67 1.24 0.98 0.76 0.53 0.57 0.64 0.68 0.97 0.95 1.24 1.37 1.18 1.04 1.12 1.15 1.42 1.74 1.68 1.54 1.39 1.43 1.46 1.47 1.44 1.33 1.06 0.88 0.86 0.88 0.86 0.84 0.90 0.76 0.65 0.57 0.49 0.52 0.60 0.66 0.67 0.72
2.20 2.92 2.84 2.42 2.18 1.75 1.45 1.21 1.00 0.93 0.83 0.60 0.55 0.78 1.05 1.35 1.20 1.16 1.12 1.07 0.91 0.99 0.99 1.13 1.52 1.56 1.45 1.37 1.51 1.56 1.56 1.53 1.46 1.22 1.03 0.93 0.88 0.85 0.85 0.92 0.79 0.73 0.66 0.63 0.66 0.70 0.70 0.69 0.74
2.49 2.59 2.78 2.42 2.20 1.84 1.72 1.24 1.05 0.98 0.77 0.64 0.65 0.89 1.36 1.64 1.44 1.30 1.15 1.19 1.15 1.11 1.00 0.95 1.26 1.35 1.32 1.33 1.42 1.47 1.48 1.43 1.38 1.20 1.03 0.95 0.91 0.87 0.94 1.00 0.90 0.83 0.73 0.67 0.70 0.73 0.78 0.80 0.79
2.42 2.52 2.58 2.09 2.12 2.22 1.88 1.23 1.14 0.99 0.90 0.73 0.60 0.98 1.42 1.74 1.52 1.29 1.24 1.27 1.35 1.26 1.17 1.03 1.04 1.11 1.30 1.39 1.37 1.31 1.23 1.22 1.18 1.07 1.01 0.95 0.92 0.86 0.90 0.93 0.88 0.88 0.87 0.82 0.76 0.80 0.87 0.83 0.83
1.84 2.05 2.10 2.04 2.18 2.36 1.63 1.09 0.88 0.84 0.78 0.59 0.53 0.92 1.28 1.34 1.28 1.25 1.39 1.51 1.64 1.44 1.24 1.04 0.96 1.03 1.08 1.14 1.23 1.29 1.27 1.22 1.19 1.05 0.95 0.92 0.86 0.77 0.80 0.76 0.75 0.83 0.95 1.03 0.98 0.95 0.92 0.91 0.86
1.70 2.17 2.42 2.43 2.18 1.89 1.16 0.93 0.81 0.64 0.69 0.66 0.52 0.58 0.75 0.84 0.97 1.13 1.20 1.33 1.43 1.21 1.10 1.08 1.04 1.09 1.13 1.06 1.07 1.25 1.32 1.31 1.16 1.06 0.99 0.89 0.70 0.62 0.68 0.65 0.78 0.90 1.08 1.17 1.20 1.17 1.10 0.99 0.82
1.76 2.33 2.34 1.82 1.55 1.28 0.89 0.81 0.75 0.78 0.83 0.78 0.60 0.60 0.73 0.78 0.95 1.09 1.00 0.99 0.91 0.88 0.88 0.91 0.94 1.05 1.08 0.99 1.22 1.43 1.29 1.15 0.92 0.92 0.84 0.81 0.75 0.72 0.60 0.65 0.85 1.00 1.07 1.10 1.24 1.33 1.15 0.88 0.63
1.43 1.85 1.64 1.42 1.19 0.96 0.81 0.82 0.70 0.77 0.89 0.78 0.63 0.64 0.84 0.92 0.93 0.89 0.81 0.80 0.74 0.77 0.76 0.70 0.75 0.84 0.94 1.08 1.35 1.61 1.65 1.43 1.22 1.01 0.93 0.89 0.78 0.70 0.66 0.66 0.72 0.80 0.85 0.80 0.88 0.91 0.75 0.65 0.61
1.24 1.19 1.17 1.33 1.07 0.96 0.80 0.79 0.80 0.75 0.76 0.65 0.56 0.59 0.77 0.95 0.97 0.83 0.67 0.60 0.57 0.62 0.70 0.56 0.50 0.65 0.78 0.90 1.03 1.29 1.37 1.30 1.15 0.97 0.88 0.93 0.88 0.77 0.74 0.71 0.76 0.78 0.78 0.86 0.88 0.92 0.83 0.67 0.61
1.48 1.28 1.05 1.02 1.06 1.04 0.84 0.80 0.81 0.75 0.65 0.59 0.59 0.72 0.79 0.80 0.78 0.71 0.60 0.52 0.53 0.61 0.68 0.62 0.52 0.52 0.57 0.64 0.72 0.85 1.03 1.14 1.11 1.03 0.86 0.85 0.84 0.80 0.82 0.76 0.81 0.73 0.72 0.81 0.88 0.87 0.88 0.80 0.68
1.32 1.17 1.12 1.08 1.02 1.00 0.98 0.78 0.80 0.92 0.70 0.64 0.70 0.79 0.77 0.69 0.66 0.72 0.63 0.56 0.51 0.54 0.67 0.67 0.57 0.52 0.54 0.53 0.54 0.54 0.70 0.87 1.01 1.00 0.88 0.89 0.89 0.84 0.88 0.85 0.85 0.82 0.76 0.80 0.96 0.89 0.94 0.93 0.87
1.22 1.36 1.26 1.11 1.04 1.03 1.02 1.07 0.97 0.89 0.74 0.71 0.72 0.72 0.72 0.65 0.62 0.70 0.65 0.56 0.50 0.49 0.55 0.61 0.57 0.59 0.62 0.63 0.64 0.54 0.58 0.66 0.80 0.92 0.90 0.95 0.90 0.81 0.85 0.87 0.84 0.84 0.84 0.84 0.89 0.92 0.99 0.91 0.86
1.48 1.60 1.64 1.31 1.14 1.01 1.07 1.36 1.20 0.95 0.78 0.81 0.77 0.69 0.68 0.63 0.58 0.62 0.61 0.59 0.55 0.55 0.58 0.61 0.61 0.66 0.72 0.75 0.78 0.73 0.78 0.81 0.83 0.97 0.94 0.89 0.92 0.88 0.88 0.93 0.94 0.98 1.01 0.98 0.99 1.02 1.05 1.02 1.01
1.63 1.60 1.42 1.25 1.01 0.90 0.97 1.17 1.15 1.05 0.85 0.74 0.69 0.59 0.53 0.46 0.44 0.44 0.46 0.48 0.51 0.51 0.53 0.56 0.64 0.67 0.68 0.74 0.86 1.00 1.04 1.05 1.02 1.06 1.02 0.91 0.89 0.94 1.05 1.09 1.14 1.12 1.14 1.16 1.11 1.13 1.07 1.07 1.09
1.58 1.28 1.06 0.96 0.92 0.86 0.79 0.88 0.93 0.96 0.85 0.65 0.53 0.47 0.42 0.34 0.33 0.32 0.30 0.32 0.39 0.43 0.46 0.50 0.57 0.74 0.87 0.92 0.93 1.08 1.14 1.22 1.31 1.36 1.24 1.10 1.12 1.24 1.39 1.47 1.41 1.40 1.41 1.40 1.35 1.43 1.32 1.14 1.14
1.16 1.09 0.97 0.82 0.81 0.84 0.74 0.72 0.76 0.77 0.74 0.61 0.46 0.37 0.34 0.28 0.21 0.19 0.19 0.23 0.25 0.29 0.35 0.41 0.47 0.64 0.76 0.84 0.94 1.12 1.29 1.46 1.62 1.74 1.64 1.50 1.46 1.62 1.74 1.67 1.75 1.79 1.66 1.66 1.70 1.76 1.70 1.45 1.32
1.00 1.01 0.87 0.74 0.66 0.65 0.62 0.63 0.66 0.63 0.61 0.50 0.39 0.32 0.25 0.19 0.16 0.12 0.10 0.12 0.15 0.18 0.22 0.28 0.36 0.46 0.58 0.74 0.96 1.17 1.46 1.55 1.64 1.78 1.82 1.76 1.69 1.85 1.89 1.97 2.04 2.08 2.07 2.03 1.92 2.00 2.09 1.82 1.61
0.80 0.85 0.78 0.69 0.60 0.56 0.53 0.63 0.62 0.56 0.52 0.47 0.36 0.28 0.21 0.15 0.11 0.08 0.07 0.07 0.12 0.13 0.15 0.21 0.34 0.47 0.67 0.91 1.22 1.51 1.74 1.81 1.86 1.82 1.89 1.97 2.02 2.08 2.11 2.16 2.23 2.23 2.09 2.08 2.17 2.26 2.60 2.41 2.05
0.76 0.58 0.52 0.48 0.54 0.56 0.51 0.70 0.54 0.45 0.45 0.41 0.35 0.32 0.24 0.17 0.12 0.09 0.09 0.09 0.10 0.13 0.17 0.28 0.46 0.65 0.91 1.25 1.60 1.83 2.06 2.15 2.00 1.98 2.02 2.03 1.98 2.01 2.12 2.14 2.13 2.10 2.04 2.11 2.17 2.20 2.58 2.77 2.48
0.51 0.44 0.51 0.49 0.46 0.40 0.32 0.44 0.42 0.37 0.44 0.36 0.29 0.29 0.29 0.24 0.18 0.15 0.17 0.17 0.20 0.26 0.33 0.49 0.74 1.03 1.31 1.54 1.72 1.93 2.06 2.08 2.05 2.02 2.01 1.94 1.91 1.88 1.91 1.93 2.02 2.05 2.09 2.15 2.30 2.41 2.63 2.66 2.66
0.36 0.44 0.55 0.57 0.54 0.49 0.28 0.33 0.42 0.37 0.36 0.31 0.26 0.25 0.23 0.23 0.22 0.23 0.26 0.32 0.39 0.43 0.56 0.74 0.92 1.20 1.38 1.49 1.61 1.80 1.95 2.00 2.01 2.00 1.99 1.98 1.96 1.86 1.79 1.76 1.82 1.94 2.11 2.17 2.25 2.39 2.62 2.72 2.80
0.36 0.56 0.79 0.84 0.78 0.56 0.28 0.40 0.48 0.39 0.31 0.26 0.25 0.25 0.23 0.27 0.30 0.31 0.40 0.54 0.63 0.66 0.75 0.89 0.97 1.14 1.25 1.30 1.38 1.53 1.60 1.67 1.72 1.71 1.67 1.62 1.57 1.56 1.59 1.67 1.76 1.89 2.01 2.09 2.21 2.35 2.39 2.50 2.73
0.32 0.47 0.78 0.85 0.74 0.53 0.39 0.59 0.58 0.40 0.32 0.29 0.27 0.25 0.28 0.38 0.46 0.57 0.70 0.79 0.86 0.86 0.83 0.85 0.97 1.02 1.00 1.03 1.04 1.16 1.26 1.32 1.39 1.39 1.39 1.42 1.45 1.46 1.39 1.44 1.54 1.77 1.97 2.05 2.14 2.16 2.13 2.18 2.36
0.30 0.33 0.38 0.55 0.49 0.51 0.50 0.72 0.69 0.41 0.34 0.31 0.30 0.31 0.38 0.53 0.71 0.93 1.10 1.21 1.28 1.19 1.00 0.86 0.86 0.85 0.83 0.88 0.92 0.97 1.07 1.12 1.15 1.18 1.14 1.23 1.27 1.25 1.20 1.23 1.27 1.39 1.63 1.89 2.04 1.98 1.90 1.87 2.02
0.25 0.33 0.42 0.64 0.80 0.75 0.69 0.84 0.82 0.58 0.46 0.38 0.40 0.51 0.67 0.88 1.14 1.39 1.63 1.74 1.71 1.52 1.24 0.96 0.81 0.77 0.73 0.75 0.81 0.87 0.92 0.93 0.93 0.97 0.92 0.98 1.06 1.06 1.06 1.06 1.11 1.24 1.35 1.56 1.79 1.89 1.83 1.80 1.85
0.27 0.39 0.48 0.63 0.71 0.92 1.05 1.09 0.86 0.77 0.69 0.66 0.72 0.90 1.12 1.39 1.58 1.72 1.86 1.90 1.64 1.46 1.21 0.95 0.80 0.82 0.83 0.81 0.81 0.82 0.79 0.78 0.77 0.76 0.74 0.76 0.83 0.82 0.85 1.03 1.08 1.15 1.23 1.40 1.66 1.84 1.85 1.77 1.77
0.37 0.55 0.72 1.01 0.94 0.91 1.14 1.21 0.88 0.81 0.84 0.88 0.99 1.05 1.15 1.31 1.32 1.40 1.45 1.40 1.35 1.31 1.13 0.97 0.89 0.89 0.93 0.91 0.89 0.81 0.73 0.70 0.70 0.67 0.60 0.61 0.60 0.59 0.71 0.84 0.89 0.93 0.97 1.16 1.45 1.65 1.68 1.65 1.56

GEFSSGP_prec_meanprecacc_210.txt.gz
Total_Precipitation_Accumulation
1.95 1.93 2.34 3.15 3.61 3.13 2.66 2.11 1.82 1.74 1.47 1.18 0.91 0.87 1.05 1.45 1.89 2.19 2.44 2.31 1.59 1.24 1.26 1.84 2.34 2.13 1.75 1.51 1.45 1.46 1.39 1.41 1.31 1.20 1.05 0.96 0.86 0.79 0.69 0.56 0.57 0.58 0.54 0.50 0.50 0.62 0.62 0.62 0.79
1.50 2.28 2.93 3.73 3.28 2.63 2.46 2.08 1.93 1.62 1.14 0.93 0.68 0.62 0.73 0.76 0.81 1.26 2.29 2.31 1.46 1.16 1.18 1.39 1.94 1.86 1.54 1.36 1.36 1.40 1.34 1.43 1.36 1.16 1.00 0.85 0.83 0.84 0.75 0.67 0.76 0.62 0.52 0.47 0.53 0.64 0.67 0.69 0.81
1.66 2.67 3.52 3.71 2.61 2.34 2.39 2.14 1.74 1.25 0.84 0.79 0.66 0.61 0.75 0.95 0.99 1.39 2.05 1.72 1.28 1.16 1.19 1.54 1.92 1.77 1.57 1.39 1.44 1.47 1.39 1.40 1.25 1.00 0.83 0.78 0.84 0.87 0.87 0.86 0.85 0.63 0.51 0.44 0.49 0.61 0.67 0.70 0.78
1.94 2.96 3.19 2.93 2.38 1.94 1.87 1.83 1.36 1.04 0.79 0.55 0.59 0.66 0.70 1.00 0.99 1.28 1.38 1.20 1.06 1.16 1.18 1.45 1.77 1.70 1.55 1.41 1.44 1.47 1.48 1.45 1.34 1.07 0.89 0.87 0.90 0.87 0.86 0.91 0.78 0.68 0.59 0.51 0.54 0.61 0.68 0.68 0.73
2.30 3.04 2.97 2.55 2.30 1.86 1.55 1.31 1.08 0.97 0.85 0.61 0.56 0.80 1.08 1.39 1.23 1.18 1.14 1.09 0.93 1.02 1.02 1.15 1.54 1.58 1.47 1.39 1.53 1.58 1.57 1.56 1.49 1.23 1.04 0.95 0.89 0.86 0.87 0.93 0.80 0.74 0.67 0.64 0.67 0.71 0.71 0.70 0.75
2.57 2.69 2.88 2.53 2.30 1.96 1.83 1.31 1.10 1.01 0.78 0.65 0.67 0.91 1.41 1.70 1.47 1.33 1.18 1.21 1.18 1.14 1.02 0.97 1.28 1.37 1.34 1.35 1.43 1.48 1.49 1.45 1.41 1.21 1.04 0.97 0.92 0.88 0.96 1.01 0.91 0.84 0.74 0.69 0.71 0.74 0.80 0.81 0.81
2.49 2.60 2.68 2.20 2.23 2.35 1.99 1.30 1.19 1.03 0.92 0.74 0.60 1.00 1.46 1.78 1.55 1.33 1.27 1.28 1.36 1.27 1.18 1.05 1.06 1.14 1.32 1.42 1.39 1.32 1.24 1.23 1.20 1.08 1.02 0.96 0.93 0.88 0.91 0.94 0.89 0.89 0.88 0.84 0.79 0.82 0.89 0.84 0.85
1.88 2.12 2.20 2.13 2.28 2.47 1.72 1.16 0.93 0.87 0.80 0.60 0.54 0.93 1.31 1.37 1.30 1.27 1.41 1.53 1.66 1.45 1.25 1.05 0.98 1.04 1.09 1.15 1.24 1.29 1.28 1.23 1.20 1.06 0.96 0.92 0.87 0.78 0.81 0.77 0.76 0.85 0.96 1.05 1.00 0.97 0.94 0.93 0.89
1.74 2.23 2.51 2.51 2.27 1.96 1.20 0.97 0.84 0.66 0.72 0.67 0.53 0.59 0.76 0.86 0.99 1.15 1.22 1.35 1.45 1.23 1.10 1.09 1.05 1.09 1.13 1.06 1.08 1.26 1.32 1.31 1.17 1.07 1.00 0.90 0.70 0.62 0.68 0.66 0.80 0.91 1.09 1.18 1.22 1.18 1.12 1.02 0.86
1.80 2.41 2.42 1.88 1.62 1.32 0.93 0.84 0.77 0.80 0.85 0.81 0.62 0.62 0.74 0.79 0.97 1.11 1.01 1.00 0.92 0.89 0.88 0.92 0.95 1.05 1.09 0.99 1.22 1.43 1.29 1.15 0.92 0.93 0.84 0.82 0.75 0.72 0.60 0.65 0.86 1.01 1.09 1.12 1.26 1.35 1.18 0.92 0.66
1.46 1.91 1.69 1.47 1.24 1.00 0.84 0.84 0.72 0.79 0.93 0.81 0.66 0.67 0.85 0.94 0.94 0.90 0.82 0.81 0.74 0.77 0.76 0.71 0.76 0.85 0.95 1.09 1.35 1.61 1.66 1.43 1.22 1.01 0.93 0.90 0.79 0.70 0.66 0.66 0.74 0.82 0.87 0.82 0.89 0.92 0.78 0.68 0.62
1.27 1.23 1.21 1.35 1.11 1.02 0.84 0.83 0.83 0.78 0.81 0.69 0.60 0.62 0.79 0.96 0.98 0.84 0.68 0.60 0.58 0.62 0.70 0.56 0.50 0.65 0.78 0.90 1.03 1.29 1.37 1.31 1.16 0.97 0.88 0.94 0.88 0.78 0.75 0.73 0.79 0.80 0.79 0.86 0.88 0.93 0.86 0.69 0.62
1.53 1.32 1.07 1.04 1.09 1.09 0.88 0.84 0.84 0.78 0.71 0.64 0.63 0.73 0.81 0.81 0.79 0.72 0.61 0.53 0.53 0.61 0.68 0.62 0.52 0.52 0.58 0.64 0.72 0.85 1.03 1.14 1.11 1.04 0.87 0.86 0.85 0.82 0.85 0.79 0.83 0.75 0.73 0.82 0.88 0.89 0.91 0.82 0.70
1.35 1.20 1.14 1.09 1.05 1.01 1.02 0.82 0.83 0.96 0.76 0.70 0.74 0.82 0.78 0.71 0.70 0.75 0.64 0.57 0.51 0.54 0.67 0.67 0.57 0.53 0.54 0.53 0.54 0.54 0.70 0.87 1.01 1.00 0.88 0.90 0.91 0.87 0.92 0.87 0.86 0.84 0.77 0.80 0.97 0.90 0.95 0.94 0.88
1.24 1.37 1.27 1.13 1.07 1.05 1.04 1.11 1.01 0.95 0.78 0.75 0.76 0.75 0.74 0.67 0.64 0.71 0.66 0.57 0.51 0.50 0.56 0.61 0.58 0.59 0.62 0.63 0.64 0.54 0.58 0.66 0.80 0.92 0.90 0.95 0.90 0.82 0.86 0.87 0.85 0.84 0.85 0.84 0.90 0.92 0.99 0.92 0.86
1.51 1.63 1.66 1.34 1.18 1.03 1.09 1.41 1.26 1.01 0.83 0.85 0.81 0.72 0.70 0.64 0.59 0.63 0.62 0.60 0.56 0.56 0.59 0.62 0.62 0.67 0.72 0.76 0.78 0.73 0.78 0.81 0.83 0.97 0.94 0.89 0.92 0.89 0.89 0.93 0.94 0.98 1.02 0.99 1.00 1.03 1.06 1.02 1.01
1.66 1.64 1.45 1.29 1.08 0.93 0.99 1.21 1.23 1.11 0.90 0.78 0.72 0.62 0.54 0.48 0.46 0.45 0.47 0.48 0.51 0.52 0.55 0.57 0.65 0.67 0.68 0.75 0.87 1.00 1.04 1.05 1.02 1.06 1.02 0.91 0.90 0.95 1.06 1.09 1.14 1.12 1.14 1.16 1.12 1.13 1.07 1.08 1.09
1.62 1.33 1.10 1.00 0.96 0.87 0.81 0.90 0.98 1.02 0.89 0.69 0.55 0.48 0.43 0.35 0.33 0.32 0.31 0.33 0.39 0.43 0.46 0.51 0.58 0.76 0.88 0.93 0.94 1.08 1.14 1.22 1.31 1.36 1.24 1.10 1.12 1.25 1.40 1.48 1.42 1.41 1.42 1.42 1.36 1.44 1.33 1.15 1.15
1.19 1.14 1.01 0.84 0.83 0.85 0.76 0.75 0.81 0.81 0.78 0.64 0.49 0.38 0.35 0.28 0.22 0.20 0.20 0.23 0.26 0.29 0.35 0.41 0.48 0.64 0.77 0.85 0.95 1.12 1.29 1.47 1.62 1.74 1.64 1.50 1.46 1.63 1.75 1.69 1.77 1.79 1.67 1.67 1.72 1.77 1.71 1.45 1.32
1.03 1.04 0.90 0.76 0.67 0.66 0.65 0.68 0.71 0.68 0.65 0.53 0.41 0.33 0.26 0.19 0.16 0.12 0.10 0.12 0.16 0.18 0.22 0.28 0.36 0.46 0.59 0.74 0.97 1.17 1.46 1.55 1.64 1.78 1.82 1.76 1.70 1.85 1.89 1.98 2.05 2.09 2.08 2.04 1.93 2.00 2.10 1.83 1.62
0.83 0.87 0.79 0.70 0.61 0.58 0.55 0.67 0.66 0.60 0.56 0.49 0.37 0.29 0.21 0.15 0.12 0.08 0.08 0.08 0.12 0.13 0.15 0.21 0.34 0.47 0.68 0.91 1.23 1.51 1.74 1.82 1.87 1.82 1.89 1.97 2.02 2.08 2.11 2.17 2.23 2.24 2.10 2.09 2.18 2.27 2.60 2.41 2.06
0.78 0.59 0.53 0.50 0.56 0.58 0.53 0.74 0.57 0.48 0.48 0.42 0.36 0.33 0.25 0.18 0.12 0.10 0.10 0.10 0.10 0.13 0.18 0.29 0.46 0.65 0.91 1.25 1.60 1.84 2.06 2.16 2.00 1.98 2.02 2.03 1.98 2.01 2.13 2.14 2.14 2.11 2.05 2.12 2.18 2.21 2.59 2.77 2.48
0.52 0.44 0.52 0.52 0.49 0.43 0.35 0.47 0.45 0.40 0.46 0.37 0.29 0.30 0.29 0.24 0.18 0.16 0.18 0.18 0.21 0.27 0.34 0.50 0.74 1.04 1.31 1.54 1.72 1.94 2.07 2.09 2.06 2.02 2.01 1.94 1.91 1.88 1.91 1.93 2.02 2.05 2.10 2.15 2.31 2.41 2.63 2.66 2.67
0.37 0.45 0.57 0.58 0.56 0.54 0.30 0.35 0.44 0.38 0.37 0.33 0.28 0.25 0.24 0.23 0.23 0.24 0.26 0.32 0.39 0.44 0.57 0.74 0.92 1.21 1.39 1.50 1.62 1.80 1.95 2.00 2.01 2.00 1.99 1.98 1.96 1.86 1.79 1.76 1.83 1.95 2.11 2.17 2.25 2.39 2.62 2.72 2.80
0.37 0.58 0.81 0.86 0.81 0.60 0.30 0.41 0.50 0.40 0.32 0.29 0.29 0.27 0.24 0.27 0.31 0.31 0.41 0.55 0.63 0.67 0.75 0.89 0.98 1.15 1.26 1.31 1.39 1.53 1.60 1.67 1.72 1.71 1.68 1.62 1.58 1.57 1.59 1.67 1.76 1.89 2.01 2.10 2.21 2.35 2.39 2.50 2.74
0.33 0.49 0.80 0.88 0.77 0.56 0.41 0.61 0.60 0.41 0.33 0.31 0.30 0.28 0.30 0.39 0.47 0.57 0.71 0.80 0.87 0.87 0.84 0.86 0.99 1.04 1.02 1.04 1.05 1.17 1.26 1.32 1.39 1.39 1.39 1.42 1.46 1.46 1.40 1.44 1.54 1.77 1.97 2.05 2.15 2.16 2.13 2.18 2.37
0.31 0.34 0.39 0.56 0.52 0.53 0.52 0.74 0.71 0.43 0.36 0.33 0.31 0.33 0.39 0.55 0.72 0.93 1.11 1.22 1.29 1.20 1.01 0.87 0.88 0.87 0.85 0.90 0.94 0.98 1.07 1.12 1.15 1.18 1.14 1.24 1.28 1.27 1.21 1.23 1.27 1.40 1.63 1.89 2.05 1.99 1.91 1.87 2.03
0.26 0.34 0.44 0.67 0.82 0.77 0.71 0.87 0.87 0.62 0.51 0.42 0.42 0.53 0.68 0.89 1.16 1.40 1.64 1.76 1.73 1.53 1.26 0.98 0.82 0.79 0.76 0.79 0.84 0.89 0.93 0.95 0.94 0.98 0.92 0.98 1.08 1.07 1.07 1.07 1.12 1.25 1.36 1.57 1.80 1.90 1.84 1.81 1.86
0.29 0.40 0.50 0.66 0.74 0.96 1.09 1.14 0.93 0.83 0.74 0.70 0.76 0.92 1.13 1.40 1.58 1.73 1.87 1.91 1.65 1.48 1.24 0.97 0.82 0.84 0.86 0.85 0.84 0.84 0.82 0.80 0.79 0.78 0.75 0.78 0.85 0.84 0.87 1.04 1.09 1.16 1.24 1.41 1.67 1.85 1.86 1.78 1.79
0.40 0.58 0.75 1.03 0.97 0.93 1.16 1.24 0.90 0.83 0.87 0.90 1.01 1.06 1.17 1.32 1.33 1.40 1.46 1.41 1.36 1.32 1.15 0.99 0.91 0.91 0.95 0.94 0.94 0.87 0.79 0.75 0.74 0.72 0.63 0.63 0.61 0.60 0.71 0.84 0.89 0.93 0.98 1.17 1.46 1.66 1.69 1.66 1.57

GEFSSGP_prec_meanprecacc_216.txt.gz
Total_Precipitation_Accumulation
2.01 1.97 2.40 3.24 3.69 3.17 2.71 2.16 1.86 1.80 1.53 1.24 0.97 0.93 1.15 1.52 1.94 2.25 2.48 2.33 1.61 1.26 1.30 1.92 2.43 2.20 1.80 1.55 1.47 1.48 1.41 1.44 1.33 1.24 1.10 0.99 0.90 0.82 0.71 0.60 0.62 0.61 0.56 0.51 0.52 0.64 0.66 0.67 0.82
1.53 2.32 2.98 3.81 3.35 2.67 2.50 2.15 2.00 1.68 1.23 1.00 0.73 0.66 0.76 0.79 0.83 1.29 2.32 2.33 1.48 1.18 1.22 1.45 2.01 1.91 1.58 1.40 1.39 1.43 1.38 1.47 1.38 1.20 1.03 0.89 0.87 0.87 0.78 0.72 0.80 0.65 0.55 0.49 0.54 0.66 0.72 0.73 0.83
1.70 2.74 3.60 3.78 2.66 2.37 2.44 2.23 1.84 1.33 0.93 0.86 0.71 0.63 0.77 0.97 1.02 1.43 2.08 1.73 1.30 1.18 1.21 1.58 1.98 1.81 1.59 1.43 1.47 1.51 1.44 1.44 1.29 1.04 0.86 0.82 0.88 0.92 0.92 0.91 0.87 0.65 0.55 0.48 0.52 0.64 0.71 0.73 0.81
1.97 3.02 3.27 2.99 2.43 1.98 1.95 1.97 1.50 1.15 0.88 0.60 0.62 0.68 0.71 1.02 1.02 1.31 1.41 1.23 1.08 1.17 1.19 1.48 1.84 1.74 1.58 1.43 1.48 1.51 1.52 1.49 1.39 1.11 0.92 0.90 0.93 0.91 0.89 0.95 0.81 0.70 0.63 0.55 0.57 0.64 0.71 0.70 0.75
2.35 3.10 3.02 2.60 2.37 1.95 1.63 1.38 1.17 1.05 0.91 0.66 0.59 0.81 1.10 1.42 1.25 1.19 1.16 1.11 0.95 1.04 1.04 1.19 1.59 1.62 1.50 1.41 1.56 1.61 1.61 1.60 1.54 1.26 1.07 0.98 0.92 0.89 0.91 0.97 0.83 0.77 0.71 0.67 0.70 0.73 0.74 0.73 0.78
2.61 2.72 2.91 2.56 2.36 2.04 1.92 1.39 1.18 1.06 0.82 0.69 0.69 0.93 1.43 1.73 1.49 1.35 1.19 1.23 1.20 1.16 1.05 1.02 1.34 1.43 1.38 1.39 1.46 1.51 1.51 1.48 1.44 1.23 1.07 1.00 0.94 0.91 0.99 1.05 0.94 0.87 0.77 0.71 0.73 0.77 0.83 0.84 0.83
2.52 2.63 2.71 2.23 2.28 2.42 2.08 1.39 1.26 1.07 0.95 0.75 0.62 1.01 1.49 1.82 1.59 1.36 1.29 1.30 1.38 1.29 1.22 1.10 1.12 1.21 1.40 1.47 1.43 1.34 1.26 1.25 1.22 1.10 1.04 0.98 0.95 0.90 0.94 0.99 0.92 0.91 0.90 0.86 0.81 0.84 0.91 0.87 0.88
1.91 2.15 2.23 2.16 2.31 2.52 1.78 1.22 0.98 0.89 0.83 0.60 0.54 0.94 1.33 1.39 1.34 1.32 1.44 1.55 1.68 1.48 1.29 1.09 1.01 1.08 1.13 1.20 1.29 1.33 1.31 1.25 1.21 1.08 0.98 0.95 0.89 0.80 0.84 0.80 0.78 0.86 0.97 1.06 1.01 1.00 0.97 0.97 0.93
1.77 2.27 2.54 2.55 2.30 2.00 1.24 1.01 0.88 0.69 0.74 0.69 0.54 0.60 0.77 0.87 1.02 1.19 1.24 1.37 1.47 1.25 1.13 1.12 1.08 1.12 1.16 1.09 1.12 1.30 1.35 1.33 1.18 1.08 1.02 0.91 0.72 0.63 0.69 0.68 0.82 0.94 1.11 1.21 1.24 1.21 1.15 1.06 0.91
1.82 2.44 2.45 1.91 1.65 1.35 0.96 0.89 0.81 0.83 0.87 0.82 0.63 0.63 0.75 0.80 0.98 1.13 1.03 1.01 0.93 0.89 0.89 0.94 0.98 1.08 1.11 1.01 1.24 1.45 1.31 1.16 0.93 0.93 0.85 0.82 0.76 0.73 0.61 0.67 0.89 1.04 1.11 1.15 1.29 1.37 1.21 0.94 0.68
1.48 1.93 1.72 1.50 1.26 1.02 0.86 0.87 0.75 0.81 0.94 0.82 0.67 0.68 0.88 0.95 0.95 0.92 0.84 0.81 0.74 0.77 0.77 0.73 0.79 0.87 0.97 1.11 1.36 1.62 1.66 1.44 1.22 1.01 0.93 0.90 0.79 0.70 0.66 0.66 0.74 0.84 0.89 0.84 0.92 0.95 0.80 0.70 0.63
1.28 1.24 1.23 1.39 1.13 1.04 0.86 0.85 0.86 0.80 0.82 0.71 0.61 0.64 0.81 0.97 0.99 0.85 0.69 0.60 0.58 0.62 0.70 0.57 0.51 0.67 0.81 0.92 1.04 1.30 1.38 1.31 1.16 0.98 0.89 0.94 0.88 0.78 0.76 0.74 0.79 0.80 0.79 0.88 0.90 0.94 0.87 0.71 0.64
1.56 1.33 1.09 1.07 1.12 1.13 0.91 0.87 0.87 0.81 0.72 0.65 0.64 0.75 0.82 0.82 0.80 0.73 0.61 0.53 0.54 0.61 0.68 0.63 0.53 0.53 0.59 0.65 0.73 0.86 1.03 1.14 1.12 1.05 0.88 0.87 0.86 0.83 0.85 0.80 0.83 0.75 0.73 0.83 0.90 0.91 0.94 0.84 0.72
1.38 1.21 1.15 1.11 1.07 1.06 1.06 0.85 0.87 1.01 0.78 0.71 0.76 0.84 0.80 0.72 0.70 0.76 0.65 0.58 0.52 0.55 0.68 0.68 0.58 0.53 0.54 0.54 0.55 0.55 0.71 0.87 1.02 1.01 0.89 0.91 0.92 0.87 0.92 0.87 0.87 0.84 0.78 0.82 0.99 0.94 0.98 0.96 0.88
1.25 1.38 1.28 1.15 1.09 1.07 1.07 1.15 1.06 1.00 0.81 0.77 0.79 0.77 0.75 0.68 0.65 0.72 0.67 0.58 0.52 0.51 0.56 0.63 0.60 0.60 0.63 0.64 0.64 0.54 0.58 0.66 0.80 0.92 0.91 0.95 0.90 0.83 0.86 0.87 0.85 0.85 0.86 0.86 0.91 0.96 1.02 0.92 0.87
1.52 1.65 1.69 1.37 1.21 1.05 1.12 1.45 1.31 1.08 0.88 0.88 0.84 0.74 0.72 0.66 0.60 0.65 0.63 0.61 0.58 0.58 0.60 0.65 0.64 0.69 0.72 0.76 0.78 0.73 0.78 0.81 0.83 0.97 0.94 0.89 0.92 0.89 0.89 0.93 0.94 0.99 1.03 1.00 1.01 1.06 1.08 1.03 1.01
1.67 1.65 1.48 1.34 1.11 0.96 1.01 1.25 1.27 1.15 0.93 0.80 0.74 0.64 0.56 0.49 0.47 0.47 0.48 0.50 0.53 0.53 0.56 0.60 0.69 0.70 0.70 0.75 0.87 1.00 1.04 1.05 1.02 1.06 1.02 0.92 0.90 0.95 1.06 1.09 1.15 1.13 1.15 1.17 1.13 1.15 1.08 1.09 1.10
1.63 1.34 1.13 1.04 1.00 0.89 0.82 0.93 1.00 1.04 0.91 0.70 0.57 0.49 0.44 0.36 0.34 0.33 0.32 0.34 0.41 0.44 0.48 0.52 0.60 0.78 0.90 0.94 0.94 1.08 1.14 1.22 1.31 1.36 1.24 1.10 1.12 1.25 1.40 1.48 1.42 1.42 1.42 1.42 1.37 1.45 1.34 1.16 1.16
1.21 1.15 1.02 0.85 0.84 0.86 0.77 0.77 0.83 0.84 0.80 0.66 0.50 0.40 0.36 0.29 0.23 0.21 0.21 0.24 0.26 0.30 0.36 0.43 0.49 0.66 0.79 0.85 0.95 1.13 1.30 1.47 1.62 1.74 1.64 1.50 1.46 1.63 1.75 1.69 1.77 1.80 1.67 1.68 1.72 1.79 1.73 1.47 1.33
1.04 1.04 0.91 0.78 0.68 0.67 0.67 0.70 0.74 0.71 0.68 0.55 0.42 0.34 0.27 0.20 0.17 0.13 0.11 0.13 0.16 0.19 0.23 0.29 0.37 0.47 0.59 0.75 0.98 1.18 1.47 1.56 1.64 1.78 1.82 1.76 1.70 1.85 1.89 1.98 2.06 2.10 2.09 2.05 1.94 2.02 2.11 1.85 1.63
0.84 0.88 0.80 0.71 0.62 0.59 0.57 0.69 0.70 0.64 0.60 0.51 0.38 0.30 0.22 0.16 0.12 0.09 0.09 0.08 0.13 0.14 0.15 0.22 0.34 0.47 0.68 0.92 1.23 1.52 1.74 1.82 1.87 1.82 1.89 1.97 2.02 2.08 2.11 2.17 2.24 2.25 2.11 2.10 2.19 2.28 2.61 2.42 2.07
0.79 0.60 0.54 0.51 0.57 0.59 0.54 0.76 0.59 0.50 0.50 0.44 0.37 0.33 0.25 0.18 0.13 0.10 0.11 0.10 0.11 0.14 0.18 0.29 0.47 0.66 0.92 1.26 1.61 1.84 2.06 2.16 2.01 1.99 2.02 2.03 1.99 2.02 2.13 2.14 2.14 2.11 2.06 2.14 2.19 2.22 2.60 2.78 2.49
0.53 0.45 0.52 0.53 0.50 0.43 0.35 0.48 0.46 0.41 0.47 0.37 0.30 0.30 0.30 0.24 0.18 0.16 0.18 0.18 0.21 0.28 0.34 0.50 0.75 1.04 1.32 1.55 1.74 1.94 2.07 2.09 2.07 2.02 2.01 1.95 1.92 1.88 1.92 1.94 2.03 2.06 2.10 2.16 2.33 2.43 2.64 2.66 2.67
0.38 0.46 0.57 0.59 0.57 0.54 0.31 0.36 0.44 0.40 0.38 0.34 0.29 0.26 0.24 0.23 0.23 0.24 0.27 0.33 0.40 0.44 0.57 0.75 0.92 1.21 1.39 1.51 1.62 1.81 1.96 2.01 2.02 2.00 2.00 1.99 1.97 1.87 1.80 1.77 1.83 1.95 2.12 2.18 2.27 2.41 2.63 2.72 2.81
0.38 0.58 0.82 0.86 0.82 0.60 0.30 0.42 0.50 0.41 0.33 0.29 0.30 0.28 0.25 0.28 0.32 0.32 0.42 0.55 0.64 0.67 0.76 0.90 0.98 1.16 1.27 1.32 1.39 1.54 1.61 1.67 1.73 1.72 1.69 1.63 1.59 1.58 1.60 1.68 1.77 1.90 2.02 2.11 2.22 2.36 2.40 2.51 2.74
0.34 0.50 0.81 0.89 0.77 0.56 0.42 0.62 0.60 0.42 0.34 0.31 0.31 0.28 0.31 0.41 0.49 0.58 0.71 0.81 0.87 0.88 0.85 0.86 0.99 1.04 1.02 1.05 1.05 1.18 1.27 1.33 1.40 1.40 1.40 1.43 1.47 1.48 1.41 1.46 1.56 1.79 1.98 2.07 2.16 2.17 2.14 2.19 2.38
0.32 0.34 0.40 0.57 0.52 0.54 0.53 0.75 0.72 0.43 0.37 0.33 0.31 0.33 0.40 0.55 0.73 0.94 1.12 1.23 1.30 1.21 1.01 0.88 0.88 0.88 0.85 0.91 0.95 0.99 1.08 1.13 1.16 1.20 1.15 1.25 1.30 1.29 1.23 1.25 1.29 1.42 1.65 1.91 2.06 2.00 1.92 1.88 2.04
0.26 0.35 0.44 0.67 0.83 0.78 0.72 0.88 0.88 0.62 0.51 0.43 0.43 0.53 0.69 0.89 1.16 1.41 1.64 1.76 1.73 1.54 1.27 0.99 0.83 0.80 0.77 0.80 0.84 0.90 0.94 0.96 0.95 0.99 0.94 1.00 1.10 1.09 1.09 1.09 1.14 1.27 1.38 1.58 1.81 1.91 1.85 1.82 1.87
0.29 0.40 0.50 0.66 0.75 0.96 1.10 1.15 0.94 0.83 0.74 0.71 0.77 0.94 1.15 1.41 1.59 1.73 1.88 1.92 1.66 1.48 1.24 0.98 0.82 0.85 0.87 0.86 0.86 0.85 0.82 0.81 0.81 0.81 0.78 0.82 0.89 0.89 0.92 1.08 1.13 1.19 1.25 1.43 1.69 1.87 1.87 1.79 1.79
0.40 0.58 0.75 1.04 0.98 0.94 1.17 1.25 0.91 0.84 0.88 0.91 1.02 1.08 1.19 1.34 1.34 1.41 1.47 1.43 1.38 1.34 1.16 1.01 0.92 0.93 0.97 0.97 0.97 0.90 0.81 0.76 0.75 0.73 0.66 0.67 0.65 0.64 0.76 0.90 0.94 0.97 1.00 1.18 1.47 1.67 1.71 1.67 1.58

GEFSSGP_prec_meanprecacc_222.txt.gz
Total_Precipitation_Accumulation
2.09 2.00 2.43 3.30 3.78 3.24 2.75 2.20 1.90 1.83 1.56 1.26 0.99 0.96 1.18 1.55 1.97 2.29 2.50 2.34 1.63 1.28 1.34 2.00 2.53 2.28 1.86 1.58 1.49 1.50 1.43 1.47 1.36 1.28 1.15 1.05 0.95 0.85 0.73 0.63 0.65 0.65 0.60 0.54 0.56 0.67 0.70 0.71 0.86
1.56 2.34 3.02 3.86 3.42 2.74 2.55 2.20 2.04 1.72 1.26 1.03 0.75 0.68 0.79 0.82 0.85 1.32 2.34 2.34 1.49 1.20 1.26 1.50 2.09 1.97 1.62 1.43 1.43 1.48 1.42 1.50 1.42 1.25 1.08 0.95 0.94 0.93 0.83 0.77 0.86 0.69 0.59 0.53 0.58 0.70 0.76 0.75 0.85
1.72 2.76 3.64 3.83 2.70 2.42 2.49 2.29 1.92 1.42 1.00 0.92 0.75 0.67 0.80 0.99 1.04 1.45 2.10 1.75 1.32 1.21 1.24 1.63 2.06 1.87 1.63 1.45 1.49 1.55 1.48 1.48 1.34 1.09 0.89 0.88 0.96 0.98 0.97 0.97 0.94 0.72 0.61 0.53 0.56 0.67 0.73 0.75 0.83
1.99 3.05 3.30 3.02 2.46 2.01 1.99 2.02 1.58 1.26 0.97 0.66 0.67 0.72 0.75 1.05 1.05 1.33 1.43 1.25 1.11 1.19 1.21 1.51 1.91 1.79 1.61 1.46 1.50 1.54 1.55 1.54 1.44 1.15 0.94 0.94 0.99 0.97 0.95 1.01 0.87 0.77 0.69 0.59 0.60 0.66 0.73 0.73 0.77
2.36 3.14 3.05 2.63 2.39 1.99 1.67 1.42 1.22 1.11 0.98 0.74 0.64 0.84 1.13 1.45 1.28 1.22 1.18 1.14 0.99 1.07 1.06 1.22 1.64 1.67 1.53 1.45 1.60 1.66 1.65 1.66 1.61 1.32 1.11 1.03 1.00 0.97 0.98 1.03 0.88 0.82 0.76 0.72 0.74 0.76 0.76 0.75 0.80
2.62 2.74 2.96 2.60 2.39 2.09 1.97 1.44 1.21 1.09 0.86 0.74 0.73 0.96 1.47 1.76 1.51 1.37 1.22 1.26 1.22 1.19 1.07 1.04 1.40 1.49 1.43 1.44 1.53 1.58 1.58 1.55 1.52 1.30 1.12 1.05 1.00 0.97 1.06 1.11 0.99 0.91 0.81 0.76 0.77 0.81 0.86 0.86 0.86
2.53 2.65 2.75 2.25 2.31 2.46 2.13 1.46 1.32 1.11 0.99 0.80 0.65 1.04 1.52 1.85 1.60 1.39 1.32 1.34 1.41 1.33 1.24 1.13 1.18 1.28 1.49 1.55 1.51 1.44 1.35 1.33 1.29 1.15 1.09 1.02 0.98 0.93 0.99 1.04 0.97 0.95 0.94 0.90 0.84 0.88 0.95 0.89 0.91
1.92 2.17 2.26 2.18 2.35 2.56 1.81 1.27 1.04 0.96 0.89 0.65 0.57 0.95 1.35 1.41 1.35 1.35 1.46 1.60 1.73 1.54 1.37 1.15 1.07 1.14 1.20 1.31 1.40 1.45 1.41 1.33 1.26 1.12 1.01 0.97 0.92 0.82 0.87 0.83 0.82 0.89 1.00 1.09 1.04 1.03 1.01 1.00 0.96
1.79 2.30 2.58 2.58 2.33 2.02 1.27 1.05 0.92 0.74 0.79 0.72 0.55 0.61 0.78 0.88 1.03 1.22 1.26 1.39 1.50 1.28 1.18 1.19 1.16 1.18 1.21 1.17 1.23 1.42 1.46 1.42 1.23 1.11 1.04 0.94 0.74 0.65 0.71 0.71 0.86 0.99 1.16 1.25 1.28 1.24 1.19 1.08 0.93
1.86 2.49 2.50 1.94 1.68 1.37 0.98 0.93 0.84 0.86 0.91 0.85 0.65 0.64 0.76 0.81 1.00 1.15 1.05 1.02 0.94 0.91 0.91 0.97 1.03 1.14 1.15 1.05 1.29 1.50 1.35 1.20 0.96 0.94 0.85 0.83 0.77 0.74 0.62 0.68 0.93 1.09 1.16 1.19 1.32 1.40 1.23 0.96 0.70
1.52 1.98 1.76 1.54 1.30 1.05 0.89 0.90 0.79 0.84 0.98 0.85 0.68 0.70 0.89 0.96 0.96 0.92 0.85 0.82 0.75 0.78 0.78 0.76 0.84 0.95 1.02 1.15 1.39 1.64 1.69 1.47 1.24 1.02 0.93 0.90 0.79 0.71 0.67 0.67 0.76 0.86 0.92 0.87 0.94 0.97 0.82 0.71 0.64
1.30 1.26 1.25 1.42 1.18 1.09 0.89 0.87 0.88 0.83 0.86 0.75 0.63 0.66 0.82 0.99 1.00 0.85 0.69 0.61 0.58 0.63 0.72 0.60 0.54 0.72 0.87 0.98 1.08 1.33 1.40 1.33 1.18 0.98 0.89 0.94 0.89 0.78 0.76 0.74 0.80 0.81 0.81 0.90 0.92 0.95 0.89 0.73 0.65
1.57 1.35 1.12 1.09 1.15 1.16 0.94 0.89 0.90 0.85 0.76 0.69 0.66 0.77 0.84 0.84 0.82 0.75 0.62 0.54 0.54 0.62 0.69 0.64 0.55 0.56 0.64 0.70 0.77 0.89 1.05 1.16 1.13 1.06 0.88 0.87 0.87 0.83 0.86 0.80 0.84 0.75 0.74 0.85 0.92 0.93 0.95 0.86 0.73
1.40 1.22 1.17 1.14 1.10 1.09 1.08 0.88 0.89 1.04 0.80 0.73 0.78 0.86 0.82 0.75 0.73 0.79 0.67 0.59 0.53 0.56 0.69 0.69 0.60 0.58 0.61 0.58 0.59 0.58 0.72 0.87 1.02 1.01 0.90 0.91 0.92 0.88 0.93 0.88 0.88 0.85 0.78 0.83 1.01 0.96 1.00 0.97 0.90
1.27 1.39 1.30 1.18 1.11 1.10 1.09 1.17 1.09 1.03 0.85 0.80 0.81 0.79 0.77 0.71 0.68 0.76 0.71 0.60 0.54 0.53 0.59 0.65 0.64 0.66 0.69 0.67 0.66 0.55 0.59 0.67 0.81 0.93 0.91 0.96 0.91 0.83 0.87 0.88 0.86 0.85 0.87 0.88 0.94 0.98 1.04 0.94 0.88
1.54 1.66 1.70 1.40 1.23 1.07 1.14 1.48 1.34 1.12 0.93 0.93 0.87 0.76 0.74 0.68 0.63 0.68 0.66 0.64 0.60 0.60 0.64 0.69 0.71 0.75 0.77 0.79 0.80 0.74 0.78 0.82 0.84 0.97 0.95 0.90 0.92 0.89 0.89 0.94 0.95 1.00 1.04 1.02 1.04 1.09 1.10 1.05 1.02
1.69 1.67 1.51 1.38 1.14 0.98 1.03 1.27 1.30 1.19 0.97 0.84 0.78 0.67 0.58 0.50 0.47 0.47 0.49 0.51 0.55 0.55 0.58 0.62 0.72 0.75 0.77 0.81 0.89 1.02 1.05 1.05 1.02 1.06 1.02 0.92 0.90 0.95 1.06 1.10 1.15 1.14 1.16 1.19 1.15 1.18 1.10 1.11 1.13
1.66 1.35 1.14 1.08 1.03 0.91 0.84 0.95 1.02 1.06 0.93 0.73 0.60 0.52 0.46 0.37 0.35 0.33 0.33 0.35 0.41 0.45 0.48 0.53 0.62 0.79 0.92 0.95 0.96 1.10 1.15 1.22 1.31 1.36 1.24 1.11 1.13 1.25 1.40 1.49 1.43 1.43 1.44 1.44 1.39 1.47 1.35 1.19 1.20
1.23 1.16 1.03 0.87 0.86 0.88 0.78 0.78 0.84 0.84 0.81 0.67 0.52 0.41 0.37 0.30 0.23 0.21 0.21 0.24 0.27 0.30 0.37 0.44 0.50 0.67 0.80 0.86 0.96 1.13 1.31 1.48 1.63 1.74 1.64 1.50 1.46 1.63 1.75 1.69 1.78 1.81 1.69 1.69 1.74 1.80 1.74 1.50 1.36
1.06 1.05 0.92 0.78 0.69 0.68 0.68 0.71 0.75 0.72 0.70 0.57 0.44 0.35 0.28 0.20 0.17 0.14 0.12 0.13 0.16 0.20 0.24 0.30 0.37 0.48 0.60 0.76 0.98 1.18 1.47 1.56 1.65 1.78 1.82 1.76 1.70 1.85 1.89 1.98 2.07 2.11 2.10 2.05 1.95 2.03 2.13 1.87 1.66
0.86 0.89 0.81 0.72 0.63 0.60 0.58 0.71 0.71 0.66 0.62 0.53 0.40 0.31 0.23 0.16 0.13 0.10 0.09 0.09 0.13 0.14 0.16 0.23 0.35 0.48 0.69 0.92 1.24 1.52 1.75 1.82 1.87 1.83 1.89 1.98 2.02 2.08 2.12 2.17 2.25 2.26 2.12 2.12 2.21 2.31 2.65 2.46 2.11
0.81 0.61 0.55 0.51 0.58 0.61 0.56 0.79 0.60 0.52 0.52 0.45 0.38 0.34 0.26 0.18 0.13 0.11 0.11 0.10 0.11 0.14 0.19 0.30 0.48 0.67 0.93 1.26 1.61 1.85 2.07 2.17 2.02 1.99 2.02 2.03 1.99 2.02 2.14 2.15 2.15 2.13 2.08 2.16 2.22 2.26 2.64 2.83 2.53
0.54 0.46 0.53 0.54 0.51 0.45 0.36 0.49 0.47 0.42 0.48 0.38 0.30 0.31 0.30 0.25 0.18 0.16 0.18 0.18 0.22 0.28 0.35 0.51 0.75 1.05 1.32 1.56 1.74 1.95 2.07 2.09 2.07 2.03 2.02 1.95 1.92 1.89 1.92 1.94 2.03 2.07 2.11 2.17 2.34 2.46 2.69 2.72 2.71
0.39 0.46 0.58 0.59 0.58 0.57 0.32 0.37 0.46 0.40 0.39 0.34 0.29 0.26 0.24 0.23 0.23 0.24 0.27 0.33 0.40 0.44 0.58 0.76 0.93 1.22 1.40 1.52 1.63 1.81 1.96 2.01 2.02 2.00 2.00 2.00 1.97 1.87 1.81 1.77 1.84 1.96 2.13 2.19 2.29 2.43 2.66 2.78 2.86
0.39 0.60 0.83 0.87 0.83 0.62 0.31 0.43 0.51 0.42 0.33 0.29 0.30 0.28 0.25 0.28 0.32 0.33 0.42 0.56 0.64 0.68 0.76 0.90 0.99 1.16 1.27 1.32 1.39 1.54 1.61 1.68 1.73 1.72 1.69 1.63 1.59 1.58 1.61 1.69 1.77 1.91 2.03 2.11 2.23 2.37 2.43 2.54 2.77
0.34 0.51 0.83 0.90 0.78 0.57 0.42 0.63 0.61 0.42 0.34 0.31 0.31 0.29 0.31 0.41 0.49 0.59 0.71 0.81 0.88 0.88 0.85 0.87 1.00 1.05 1.03 1.05 1.06 1.18 1.27 1.33 1.40 1.41 1.40 1.43 1.47 1.48 1.42 1.47 1.57 1.79 1.99 2.07 2.17 2.18 2.16 2.21 2.39
0.33 0.35 0.41 0.58 0.53 0.55 0.54 0.76 0.73 0.44 0.37 0.33 0.32 0.33 0.40 0.55 0.74 0.95 1.12 1.23 1.30 1.21 1.02 0.88 0.89 0.88 0.86 0.91 0.95 1.00 1.09 1.13 1.16 1.20 1.16 1.26 1.30 1.29 1.23 1.26 1.29 1.42 1.65 1.91 2.07 2.01 1.93 1.89 2.05
0.27 0.36 0.45 0.69 0.84 0.79 0.73 0.89 0.89 0.63 0.51 0.43 0.44 0.54 0.69 0.89 1.17 1.42 1.64 1.76 1.73 1.54 1.28 1.00 0.84 0.80 0.78 0.81 0.85 0.90 0.95 0.96 0.95 1.00 0.94 1.00 1.10 1.10 1.09 1.09 1.14 1.27 1.38 1.60 1.83 1.93 1.86 1.83 1.89
0.29 0.41 0.51 0.67 0.76 0.97 1.11 1.16 0.95 0.84 0.75 0.71 0.77 0.94 1.15 1.41 1.59 1.74 1.89 1.93 1.67 1.49 1.25 0.99 0.83 0.86 0.88 0.88 0.88 0.87 0.83 0.82 0.82 0.81 0.78 0.82 0.89 0.89 0.92 1.09 1.14 1.20 1.28 1.47 1.73 1.90 1.91 1.83 1.83
0.42 0.59 0.76 1.05 0.99 0.95 1.17 1.26 0.92 0.84 0.88 0.91 1.02 1.08 1.20 1.34 1.34 1.42 1.49 1.44 1.39 1.35 1.17 1.02 0.93 0.94 0.99 0.99 0.99 0.92 0.82 0.77 0.76 0.73 0.66 0.67 0.65 0.64 0.76 0.90 0.95 0.99 1.04 1.21 1.50 1.70 1.74 1.71 1.62

GEFSSGP_prec_meanprecacc_228.txt.gz
Total_Precipitation_Accumulation
2.13 2.05 2.50 3.43 3.94 3.40 2.90 2.31 1.97 1.90 1.60 1.27 1.00 0.97 1.20 1.60 2.03 2.36 2.57 2.37 1.65 1.32 1.39 2.05 2.59 2.34 1.89 1.61 1.52 1.54 1.46 1.50 1.43 1.36 1.20 1.11 0.99 0.89 0.76 0.66 0.68 0.68 0.64 0.58 0.60 0.71 0.73 0.73 0.88
1.60 2.38 3.10 3.99 3.56 2.89 2.69 2.30 2.12 1.79 1.28 1.04 0.75 0.69 0.80 0.84 0.87 1.36 2.39 2.36 1.51 1.22 1.31 1.55 2.13 2.02 1.65 1.45 1.45 1.52 1.46 1.55 1.49 1.29 1.14 1.02 1.01 0.98 0.88 0.82 0.90 0.73 0.64 0.61 0.64 0.74 0.80 0.77 0.87
1.74 2.80 3.73 3.95 2.83 2.54 2.60 2.41 2.01 1.47 1.02 0.93 0.76 0.68 0.83 1.02 1.06 1.49 2.14 1.76 1.33 1.22 1.28 1.67 2.09 1.91 1.65 1.46 1.51 1.57 1.53 1.54 1.40 1.15 0.97 0.96 1.04 1.05 1.03 1.01 0.99 0.77 0.67 0.61 0.61 0.70 0.76 0.78 0.85
2.04 3.12 3.38 3.13 2.55 2.10 2.08 2.12 1.66 1.31 1.01 0.69 0.68 0.74 0.78 1.08 1.09 1.36 1.45 1.26 1.13 1.21 1.24 1.54 1.95 1.84 1.64 1.47 1.53 1.57 1.60 1.59 1.50 1.22 1.01 1.00 1.05 1.04 1.01 1.06 0.92 0.83 0.76 0.64 0.64 0.69 0.77 0.77 0.81
2.41 3.22 3.16 2.73 2.46 2.05 1.73 1.49 1.27 1.15 1.02 0.77 0.66 0.88 1.17 1.49 1.31 1.24 1.22 1.16 1.01 1.09 1.09 1.25 1.67 1.71 1.57 1.48 1.63 1.70 1.70 1.72 1.67 1.38 1.17 1.08 1.04 1.02 1.04 1.09 0.94 0.88 0.84 0.78 0.79 0.80 0.80 0.78 0.83
2.70 2.83 3.07 2.70 2.45 2.15 2.04 1.50 1.26 1.12 0.88 0.75 0.75 0.98 1.51 1.79 1.54 1.39 1.24 1.29 1.24 1.21 1.10 1.06 1.43 1.53 1.47 1.47 1.58 1.65 1.65 1.62 1.58 1.36 1.18 1.10 1.04 1.00 1.09 1.16 1.03 0.95 0.86 0.81 0.83 0.86 0.89 0.88 0.88
2.61 2.74 2.85 2.34 2.37 2.53 2.18 1.50 1.35 1.14 1.02 0.82 0.67 1.06 1.57 1.87 1.61 1.39 1.34 1.37 1.44 1.36 1.29 1.16 1.21 1.32 1.52 1.60 1.58 1.51 1.42 1.41 1.37 1.22 1.14 1.06 1.01 0.96 1.01 1.07 1.00 0.99 0.97 0.93 0.88 0.93 0.98 0.92 0.93
1.95 2.23 2.35 2.29 2.43 2.62 1.85 1.29 1.05 0.97 0.91 0.67 0.60 0.98 1.39 1.44 1.36 1.36 1.48 1.63 1.78 1.57 1.42 1.21 1.13 1.19 1.26 1.36 1.46 1.51 1.46 1.39 1.33 1.18 1.06 1.01 0.96 0.86 0.90 0.86 0.85 0.93 1.05 1.13 1.08 1.06 1.03 1.02 0.98
1.81 2.37 2.68 2.68 2.42 2.07 1.29 1.07 0.93 0.75 0.82 0.75 0.58 0.62 0.79 0.88 1.03 1.23 1.28 1.42 1.54 1.30 1.20 1.24 1.23 1.25 1.27 1.22 1.26 1.46 1.50 1.45 1.27 1.15 1.07 0.98 0.78 0.69 0.74 0.73 0.88 1.02 1.21 1.29 1.30 1.25 1.20 1.09 0.95
1.89 2.56 2.58 2.02 1.75 1.42 1.02 0.96 0.86 0.88 0.93 0.87 0.67 0.66 0.77 0.82 1.01 1.16 1.07 1.05 0.96 0.93 0.93 1.00 1.09 1.24 1.24 1.11 1.33 1.54 1.38 1.22 0.98 0.97 0.87 0.87 0.81 0.77 0.64 0.70 0.95 1.12 1.21 1.23 1.34 1.42 1.25 0.98 0.72
1.53 2.03 1.82 1.59 1.34 1.10 0.94 0.94 0.82 0.87 1.02 0.89 0.71 0.72 0.90 0.97 0.97 0.93 0.87 0.87 0.79 0.80 0.79 0.78 0.87 1.00 1.08 1.20 1.43 1.69 1.73 1.50 1.26 1.04 0.95 0.93 0.81 0.72 0.67 0.68 0.77 0.88 0.96 0.90 0.96 0.99 0.85 0.75 0.68
1.33 1.31 1.31 1.47 1.21 1.13 0.93 0.90 0.91 0.86 0.90 0.78 0.66 0.68 0.84 0.99 1.00 0.86 0.70 0.64 0.60 0.66 0.75 0.62 0.57 0.76 0.92 1.02 1.13 1.37 1.44 1.36 1.19 1.00 0.90 0.95 0.90 0.79 0.76 0.75 0.81 0.83 0.84 0.94 0.95 0.99 0.93 0.76 0.67
1.62 1.39 1.16 1.12 1.17 1.20 0.97 0.93 0.93 0.89 0.79 0.71 0.68 0.80 0.87 0.85 0.84 0.77 0.63 0.55 0.56 0.66 0.72 0.66 0.57 0.58 0.67 0.73 0.81 0.94 1.11 1.19 1.16 1.08 0.89 0.87 0.87 0.83 0.87 0.82 0.85 0.77 0.76 0.87 0.94 0.96 0.97 0.87 0.74
1.43 1.26 1.20 1.17 1.14 1.13 1.12 0.92 0.93 1.07 0.82 0.75 0.79 0.88 0.84 0.76 0.75 0.80 0.69 0.61 0.55 0.58 0.70 0.71 0.62 0.60 0.63 0.63 0.63 0.64 0.79 0.93 1.05 1.02 0.90 0.91 0.92 0.88 0.93 0.89 0.89 0.87 0.81 0.85 1.04 0.99 1.02 0.99 0.91
1.30 1.43 1.33 1.22 1.15 1.14 1.12 1.21 1.13 1.06 0.87 0.81 0.82 0.81 0.79 0.72 0.70 0.80 0.73 0.62 0.55 0.54 0.60 0.67 0.66 0.69 0.72 0.70 0.69 0.58 0.62 0.69 0.83 0.94 0.92 0.96 0.91 0.83 0.87 0.89 0.87 0.87 0.89 0.91 0.99 1.00 1.05 0.95 0.90
1.57 1.71 1.75 1.44 1.26 1.11 1.17 1.51 1.37 1.14 0.95 0.94 0.88 0.78 0.75 0.70 0.65 0.70 0.69 0.67 0.63 0.62 0.65 0.70 0.73 0.78 0.80 0.81 0.81 0.75 0.79 0.82 0.85 0.98 0.95 0.91 0.93 0.90 0.90 0.95 0.96 1.00 1.05 1.04 1.06 1.11 1.11 1.06 1.04
1.73 1.70 1.54 1.41 1.17 1.00 1.06 1.31 1.32 1.20 0.98 0.85 0.79 0.68 0.60 0.51 0.48 0.49 0.50 0.52 0.57 0.57 0.59 0.63 0.73 0.76 0.78 0.82 0.90 1.02 1.06 1.06 1.03 1.07 1.03 0.93 0.91 0.95 1.06 1.10 1.16 1.14 1.17 1.20 1.17 1.20 1.11 1.13 1.15
1.69 1.38 1.16 1.10 1.04 0.93 0.87 0.97 1.04 1.07 0.93 0.74 0.61 0.54 0.48 0.38 0.35 0.34 0.33 0.35 0.41 0.46 0.49 0.55 0.63 0.80 0.92 0.96 0.96 1.10 1.16 1.23 1.31 1.36 1.24 1.11 1.13 1.26 1.41 1.49 1.43 1.43 1.45 1.45 1.41 1.48 1.37 1.21 1.23
1.24 1.19 1.05 0.88 0.87 0.89 0.80 0.80 0.85 0.85 0.82 0.68 0.53 0.42 0.38 0.31 0.23 0.21 0.21 0.24 0.27 0.31 0.37 0.44 0.50 0.68 0.81 0.87 0.97 1.15 1.32 1.48 1.63 1.74 1.64 1.50 1.46 1.63 1.76 1.70 1.79 1.82 1.70 1.71 1.77 1.83 1.78 1.54 1.41
1.07 1.08 0.94 0.80 0.69 0.69 0.69 0.72 0.76 0.73 0.70 0.58 0.45 0.37 0.29 0.21 0.18 0.14 0.12 0.14 0.17 0.20 0.24 0.30 0.38 0.48 0.61 0.77 1.00 1.19 1.48 1.57 1.65 1.78 1.82 1.76 1.70 1.86 1.90 1.99 2.09 2.13 2.12 2.08 1.97 2.06 2.17 1.91 1.69
0.87 0.92 0.84 0.75 0.64 0.60 0.59 0.73 0.73 0.66 0.62 0.54 0.41 0.32 0.23 0.17 0.14 0.10 0.10 0.09 0.13 0.14 0.16 0.23 0.35 0.48 0.69 0.93 1.25 1.53 1.76 1.83 1.88 1.84 1.89 1.98 2.02 2.09 2.12 2.18 2.26 2.29 2.14 2.14 2.23 2.34 2.68 2.50 2.15
0.84 0.62 0.56 0.55 0.61 0.63 0.57 0.83 0.63 0.52 0.52 0.47 0.39 0.35 0.27 0.18 0.13 0.11 0.11 0.11 0.11 0.14 0.19 0.30 0.48 0.67 0.94 1.27 1.62 1.86 2.09 2.19 2.03 2.00 2.03 2.04 2.00 2.03 2.15 2.16 2.16 2.15 2.10 2.17 2.23 2.27 2.66 2.86 2.58
0.55 0.46 0.54 0.55 0.54 0.46 0.37 0.53 0.51 0.43 0.49 0.39 0.31 0.31 0.31 0.25 0.19 0.16 0.18 0.18 0.22 0.28 0.35 0.51 0.76 1.05 1.33 1.56 1.75 1.95 2.08 2.10 2.08 2.04 2.03 1.96 1.93 1.90 1.93 1.95 2.04 2.08 2.13 2.18 2.35 2.47 2.71 2.75 2.74
0.39 0.47 0.59 0.61 0.60 0.61 0.33 0.41 0.50 0.42 0.40 0.35 0.29 0.27 0.24 0.23 0.23 0.24 0.27 0.33 0.40 0.44 0.58 0.76 0.93 1.22 1.41 1.52 1.63 1.82 1.97 2.02 2.03 2.01 2.01 2.01 1.98 1.87 1.81 1.78 1.85 1.98 2.14 2.20 2.29 2.44 2.67 2.79 2.87
0.39 0.62 0.87 0.92 0.88 0.66 0.32 0.46 0.54 0.42 0.33 0.30 0.30 0.29 0.25 0.29 0.32 0.33 0.42 0.56 0.64 0.68 0.76 0.90 0.99 1.17 1.28 1.33 1.40 1.55 1.62 1.68 1.74 1.73 1.70 1.64 1.59 1.59 1.62 1.69 1.79 1.93 2.05 2.12 2.24 2.38 2.43 2.55 2.79
0.35 0.54 0.87 0.95 0.83 0.60 0.43 0.66 0.62 0.42 0.34 0.31 0.31 0.29 0.31 0.41 0.50 0.60 0.72 0.82 0.88 0.88 0.85 0.87 1.00 1.05 1.03 1.06 1.06 1.19 1.29 1.35 1.41 1.41 1.41 1.45 1.49 1.50 1.43 1.47 1.58 1.81 2.00 2.08 2.18 2.19 2.17 2.22 2.41
0.34 0.37 0.42 0.60 0.56 0.59 0.57 0.77 0.73 0.44 0.37 0.33 0.32 0.34 0.40 0.56 0.74 0.96 1.13 1.23 1.30 1.21 1.02 0.89 0.89 0.88 0.86 0.92 0.96 1.01 1.11 1.15 1.18 1.21 1.17 1.26 1.32 1.31 1.25 1.26 1.30 1.44 1.66 1.92 2.08 2.02 1.94 1.90 2.06
0.28 0.37 0.47 0.71 0.88 0.84 0.77 0.91 0.91 0.63 0.52 0.43 0.44 0.55 0.69 0.89 1.17 1.42 1.64 1.76 1.74 1.55 1.28 1.00 0.84 0.80 0.78 0.81 0.86 0.92 0.96 0.97 0.96 1.01 0.95 1.01 1.10 1.11 1.10 1.10 1.16 1.28 1.39 1.60 1.84 1.94 1.87 1.84 1.91
0.32 0.44 0.54 0.71 0.79 1.01 1.15 1.18 0.95 0.84 0.75 0.72 0.78 0.95 1.15 1.41 1.59 1.74 1.89 1.94 1.68 1.49 1.25 0.99 0.84 0.86 0.88 0.88 0.88 0.88 0.84 0.83 0.82 0.81 0.79 0.82 0.90 0.90 0.93 1.10 1.16 1.22 1.29 1.48 1.74 1.91 1.92 1.85 1.86
0.43 0.63 0.81 1.10 1.02 0.98 1.20 1.27 0.92 0.85 0.88 0.91 1.03 1.09 1.20 1.35 1.36 1.44 1.50 1.46 1.40 1.36 1.18 1.02 0.93 0.94 0.99 1.00 1.00 0.92 0.83 0.77 0.76 0.74 0.67 0.68 0.66 0.65 0.77 0.91 0.96 1.00 1.05 1.23 1.52 1.71 1.75 1.72 1.64

GEFSSGP_prec_meanprecacc_234.txt.gz
Total_Precipitation_Accumulation
2.16 2.07 2.55 3.51 4.03 3.53 3.06 2.41 2.06 1.98 1.68 1.33 1.02 0.99 1.23 1.65 2.07 2.39 2.61 2.44 1.69 1.35 1.42 2.09 2.63 2.36 1.91 1.62 1.54 1.56 1.48 1.54 1.47 1.40 1.25 1.15 1.01 0.90 0.78 0.67 0.71 0.71 0.66 0.61 0.61 0.71 0.73 0.73 0.88
1.63 2.43 3.15 4.06 3.64 2.98 2.80 2.39 2.18 1.85 1.34 1.07 0.78 0.71 0.82 0.86 0.89 1.39 2.45 2.43 1.56 1.28 1.35 1.57 2.15 2.05 1.68 1.47 1.47 1.55 1.49 1.60 1.53 1.35 1.18 1.05 1.03 0.99 0.90 0.84 0.94 0.75 0.65 0.63 0.66 0.75 0.81 0.78 0.87
1.79 2.85 3.79 4.01 2.89 2.60 2.68 2.48 2.06 1.52 1.07 0.97 0.79 0.70 0.85 1.05 1.09 1.53 2.19 1.79 1.35 1.25 1.30 1.69 2.12 1.93 1.68 1.48 1.52 1.61 1.58 1.59 1.44 1.22 1.00 1.00 1.07 1.07 1.05 1.05 1.03 0.79 0.68 0.62 0.63 0.72 0.78 0.79 0.86
2.10 3.18 3.47 3.21 2.63 2.17 2.18 2.20 1.71 1.37 1.06 0.72 0.70 0.75 0.79 1.11 1.14 1.42 1.50 1.29 1.15 1.23 1.25 1.57 1.99 1.87 1.67 1.49 1.55 1.61 1.65 1.63 1.55 1.28 1.04 1.03 1.08 1.07 1.05 1.10 0.96 0.86 0.78 0.66 0.66 0.71 0.78 0.79 0.83
2.48 3.30 3.26 2.85 2.53 2.13 1.80 1.53 1.32 1.24 1.07 0.79 0.67 0.88 1.19 1.52 1.35 1.29 1.26 1.18 1.03 1.12 1.11 1.27 1.71 1.75 1.61 1.51 1.66 1.73 1.73 1.75 1.72 1.44 1.21 1.12 1.07 1.06 1.09 1.13 0.97 0.92 0.86 0.81 0.80 0.81 0.81 0.80 0.84
2.76 2.90 3.15 2.80 2.50 2.22 2.11 1.55 1.31 1.20 0.92 0.76 0.75 0.99 1.55 1.83 1.56 1.41 1.26 1.31 1.25 1.23 1.12 1.08 1.46 1.57 1.50 1.51 1.60 1.66 1.67 1.65 1.63 1.42 1.23 1.13 1.06 1.03 1.12 1.19 1.06 0.98 0.89 0.83 0.84 0.87 0.90 0.90 0.90
2.69 2.80 2.91 2.42 2.44 2.61 2.25 1.56 1.39 1.17 1.04 0.83 0.68 1.08 1.63 1.91 1.62 1.41 1.35 1.38 1.45 1.38 1.31 1.18 1.22 1.34 1.56 1.63 1.60 1.54 1.46 1.45 1.41 1.27 1.16 1.08 1.03 0.98 1.04 1.10 1.03 1.01 0.99 0.95 0.89 0.94 1.00 0.93 0.95
2.00 2.27 2.40 2.35 2.49 2.70 1.95 1.40 1.09 0.98 0.91 0.68 0.61 1.01 1.43 1.46 1.37 1.37 1.50 1.65 1.79 1.61 1.46 1.24 1.15 1.21 1.27 1.39 1.50 1.55 1.51 1.44 1.37 1.21 1.08 1.03 0.98 0.89 0.93 0.89 0.88 0.95 1.06 1.14 1.10 1.08 1.05 1.04 1.00
1.83 2.41 2.74 2.74 2.48 2.12 1.38 1.19 0.98 0.77 0.83 0.75 0.59 0.64 0.81 0.89 1.04 1.24 1.30 1.45 1.57 1.33 1.24 1.27 1.26 1.28 1.30 1.24 1.31 1.51 1.55 1.50 1.31 1.19 1.10 0.99 0.79 0.70 0.76 0.75 0.92 1.05 1.23 1.31 1.33 1.28 1.23 1.12 0.97
1.90 2.60 2.63 2.08 1.81 1.52 1.09 1.04 0.92 0.90 0.94 0.88 0.68 0.67 0.78 0.83 1.01 1.17 1.09 1.08 1.01 0.97 0.95 1.02 1.11 1.27 1.30 1.17 1.36 1.59 1.42 1.25 1.00 1.00 0.89 0.88 0.81 0.77 0.64 0.71 0.97 1.15 1.23 1.25 1.37 1.44 1.27 0.99 0.73
1.54 2.05 1.86 1.64 1.40 1.18 1.01 1.04 0.88 0.90 1.03 0.90 0.73 0.74 0.92 0.99 0.99 0.95 0.90 0.90 0.83 0.83 0.81 0.81 0.89 1.00 1.10 1.24 1.48 1.74 1.77 1.53 1.28 1.06 0.97 0.94 0.82 0.73 0.68 0.68 0.78 0.90 0.97 0.92 0.97 1.00 0.86 0.76 0.69
1.35 1.33 1.34 1.54 1.27 1.18 0.99 0.97 0.97 0.90 0.93 0.80 0.68 0.70 0.86 1.01 1.02 0.88 0.72 0.66 0.63 0.67 0.77 0.66 0.59 0.77 0.94 1.05 1.17 1.41 1.47 1.39 1.22 1.01 0.91 0.97 0.91 0.80 0.77 0.76 0.82 0.84 0.85 0.95 0.96 1.00 0.94 0.77 0.68
1.64 1.41 1.20 1.18 1.20 1.23 1.02 0.96 0.97 0.93 0.82 0.73 0.70 0.81 0.88 0.87 0.86 0.78 0.64 0.56 0.58 0.67 0.75 0.69 0.59 0.59 0.68 0.75 0.84 0.97 1.13 1.21 1.17 1.10 0.90 0.89 0.89 0.84 0.88 0.83 0.86 0.77 0.77 0.88 0.96 0.98 1.00 0.90 0.76
1.45 1.28 1.24 1.23 1.19 1.16 1.16 0.95 0.96 1.12 0.84 0.76 0.81 0.90 0.86 0.78 0.77 0.82 0.70 0.62 0.56 0.59 0.72 0.73 0.64 0.61 0.64 0.64 0.65 0.66 0.81 0.96 1.07 1.04 0.91 0.92 0.93 0.88 0.94 0.90 0.90 0.87 0.81 0.85 1.05 1.00 1.03 1.01 0.93
1.33 1.46 1.37 1.27 1.22 1.20 1.16 1.25 1.15 1.08 0.89 0.83 0.84 0.83 0.81 0.74 0.72 0.82 0.74 0.63 0.56 0.55 0.61 0.68 0.68 0.70 0.73 0.71 0.70 0.59 0.63 0.71 0.83 0.95 0.93 0.97 0.92 0.84 0.88 0.90 0.87 0.88 0.89 0.92 1.00 1.01 1.05 0.97 0.91
1.61 1.74 1.79 1.50 1.32 1.15 1.20 1.54 1.39 1.15 0.96 0.95 0.89 0.79 0.77 0.72 0.66 0.71 0.70 0.68 0.65 0.64 0.66 0.72 0.75 0.79 0.81 0.82 0.82 0.75 0.79 0.83 0.85 0.99 0.96 0.91 0.94 0.91 0.91 0.95 0.96 1.01 1.05 1.04 1.07 1.12 1.11 1.06 1.06
1.78 1.74 1.57 1.46 1.22 1.03 1.08 1.32 1.33 1.21 0.99 0.86 0.80 0.69 0.61 0.54 0.50 0.49 0.51 0.53 0.59 0.59 0.60 0.64 0.74 0.78 0.79 0.83 0.91 1.03 1.06 1.06 1.03 1.07 1.03 0.94 0.93 0.97 1.07 1.10 1.17 1.14 1.17 1.20 1.17 1.21 1.12 1.13 1.16
1.72 1.40 1.18 1.13 1.07 0.95 0.89 0.99 1.05 1.07 0.94 0.75 0.63 0.54 0.49 0.41 0.38 0.35 0.34 0.36 0.43 0.47 0.52 0.57 0.64 0.81 0.93 0.96 0.97 1.11 1.17 1.24 1.32 1.37 1.25 1.11 1.13 1.26 1.41 1.49 1.44 1.43 1.45 1.46 1.42 1.49 1.37 1.21 1.24
1.26 1.21 1.07 0.90 0.88 0.90 0.81 0.81 0.86 0.85 0.83 0.69 0.54 0.43 0.38 0.33 0.26 0.24 0.22 0.25 0.28 0.32 0.39 0.45 0.51 0.69 0.82 0.88 0.98 1.16 1.33 1.50 1.64 1.75 1.65 1.51 1.47 1.64 1.76 1.70 1.79 1.82 1.70 1.72 1.78 1.84 1.78 1.54 1.41
1.09 1.11 0.97 0.82 0.71 0.71 0.71 0.73 0.76 0.73 0.72 0.60 0.46 0.38 0.29 0.23 0.21 0.16 0.13 0.14 0.18 0.21 0.26 0.31 0.39 0.49 0.61 0.78 1.01 1.20 1.49 1.58 1.66 1.79 1.83 1.77 1.71 1.87 1.90 1.99 2.09 2.14 2.14 2.09 1.98 2.07 2.18 1.92 1.69
0.90 0.95 0.86 0.78 0.67 0.62 0.61 0.75 0.74 0.67 0.64 0.55 0.42 0.33 0.24 0.18 0.15 0.12 0.10 0.10 0.14 0.16 0.17 0.24 0.36 0.49 0.70 0.94 1.26 1.55 1.78 1.86 1.90 1.85 1.90 1.98 2.03 2.10 2.13 2.19 2.27 2.30 2.15 2.16 2.24 2.36 2.70 2.52 2.15
0.86 0.64 0.58 0.57 0.64 0.65 0.58 0.84 0.64 0.53 0.54 0.48 0.40 0.36 0.28 0.19 0.14 0.12 0.12 0.11 0.12 0.15 0.20 0.31 0.49 0.68 0.95 1.29 1.63 1.87 2.10 2.21 2.05 2.03 2.06 2.06 2.01 2.04 2.16 2.17 2.17 2.16 2.10 2.17 2.24 2.29 2.68 2.87 2.59
0.57 0.49 0.56 0.57 0.56 0.49 0.39 0.54 0.53 0.44 0.50 0.41 0.33 0.33 0.32 0.26 0.19 0.17 0.18 0.18 0.22 0.28 0.36 0.52 0.77 1.06 1.35 1.58 1.76 1.96 2.09 2.11 2.09 2.05 2.04 1.97 1.94 1.90 1.94 1.96 2.06 2.09 2.13 2.19 2.35 2.48 2.72 2.75 2.74
0.40 0.48 0.61 0.62 0.61 0.63 0.34 0.42 0.52 0.43 0.41 0.36 0.31 0.29 0.26 0.24 0.24 0.24 0.27 0.33 0.40 0.45 0.59 0.77 0.95 1.24 1.42 1.54 1.65 1.82 1.98 2.02 2.04 2.02 2.02 2.01 1.98 1.88 1.82 1.80 1.87 1.99 2.14 2.20 2.30 2.44 2.68 2.80 2.88
0.40 0.64 0.91 0.95 0.91 0.68 0.34 0.49 0.58 0.44 0.35 0.31 0.31 0.30 0.26 0.30 0.34 0.34 0.42 0.56 0.65 0.68 0.77 0.91 1.00 1.18 1.30 1.34 1.42 1.57 1.63 1.69 1.75 1.74 1.70 1.65 1.61 1.61 1.66 1.74 1.81 1.94 2.05 2.12 2.25 2.39 2.44 2.56 2.80
0.36 0.55 0.91 1.00 0.86 0.62 0.47 0.70 0.65 0.43 0.35 0.32 0.32 0.30 0.32 0.42 0.52 0.61 0.73 0.82 0.89 0.89 0.86 0.88 1.01 1.06 1.05 1.08 1.08 1.22 1.31 1.36 1.42 1.42 1.41 1.45 1.50 1.53 1.48 1.52 1.61 1.82 2.01 2.09 2.18 2.20 2.17 2.22 2.42
0.35 0.38 0.45 0.64 0.60 0.64 0.61 0.80 0.75 0.45 0.38 0.34 0.33 0.35 0.42 0.57 0.75 0.97 1.14 1.24 1.31 1.22 1.03 0.90 0.90 0.89 0.87 0.93 0.97 1.04 1.13 1.17 1.19 1.22 1.18 1.27 1.32 1.32 1.28 1.32 1.35 1.47 1.68 1.93 2.08 2.03 1.95 1.91 2.07
0.29 0.39 0.50 0.75 0.92 0.88 0.79 0.93 0.92 0.65 0.53 0.45 0.46 0.55 0.70 0.90 1.18 1.43 1.67 1.78 1.75 1.56 1.30 1.02 0.85 0.82 0.79 0.82 0.88 0.94 0.98 0.99 0.98 1.02 0.96 1.02 1.11 1.11 1.11 1.11 1.18 1.33 1.45 1.64 1.86 1.95 1.88 1.86 1.93
0.33 0.47 0.58 0.74 0.82 1.04 1.17 1.20 0.97 0.87 0.76 0.73 0.79 0.95 1.16 1.42 1.61 1.76 1.91 1.95 1.69 1.51 1.27 1.01 0.86 0.88 0.90 0.90 0.91 0.90 0.85 0.84 0.83 0.82 0.79 0.83 0.90 0.90 0.93 1.10 1.16 1.23 1.31 1.51 1.77 1.95 1.96 1.88 1.88
0.44 0.64 0.83 1.14 1.06 1.01 1.22 1.28 0.93 0.86 0.89 0.92 1.04 1.10 1.22 1.36 1.37 1.45 1.53 1.49 1.44 1.38 1.21 1.04 0.95 0.96 1.00 1.01 1.02 0.94 0.84 0.78 0.77 0.74 0.67 0.68 0.67 0.66 0.77 0.91 0.96 1.01 1.05 1.23 1.53 1.73 1.77 1.75 1.66

GEFSSGP_prec_meanprecacc_240.txt.gz
Total_Precipitation_Accumulation
2.22 2.11 2.62 3.57 4.07 3.59 3.17 2.50 2.12 2.02 1.73 1.38 1.08 1.04 1.30 1.69 2.10 2.43 2.64 2.50 1.76 1.40 1.46 2.16 2.71 2.42 1.96 1.67 1.59 1.60 1.53 1.59 1.51 1.44 1.29 1.19 1.06 0.95 0.80 0.70 0.75 0.75 0.70 0.65 0.64 0.73 0.75 0.75 0.91
1.66 2.46 3.23 4.11 3.65 3.01 2.91 2.51 2.27 1.90 1.37 1.11 0.83 0.76 0.88 0.90 0.92 1.42 2.50 2.48 1.60 1.30 1.36 1.61 2.22 2.11 1.72 1.53 1.52 1.61 1.57 1.67 1.59 1.39 1.23 1.10 1.09 1.05 0.95 0.90 0.99 0.79 0.69 0.66 0.68 0.76 0.82 0.79 0.90
1.81 2.88 3.82 4.03 2.90 2.62 2.72 2.55 2.13 1.57 1.12 1.01 0.81 0.74 0.93 1.10 1.13 1.58 2.23 1.81 1.37 1.26 1.32 1.74 2.20 1.99 1.73 1.54 1.58 1.67 1.66 1.67 1.50 1.27 1.07 1.06 1.13 1.14 1.12 1.12 1.07 0.82 0.71 0.65 0.65 0.74 0.79 0.81 0.88
2.11 3.20 3.48 3.24 2.66 2.22 2.21 2.23 1.75 1.42 1.10 0.75 0.72 0.77 0.81 1.15 1.18 1.45 1.52 1.31 1.17 1.25 1.29 1.62 2.05 1.95 1.74 1.56 1.62 1.68 1.73 1.70 1.60 1.34 1.11 1.10 1.14 1.14 1.11 1.15 1.02 0.90 0.81 0.69 0.68 0.74 0.81 0.82 0.85
2.50 3.31 3.28 2.89 2.59 2.21 1.87 1.58 1.36 1.27 1.09 0.81 0.68 0.90 1.20 1.54 1.37 1.30 1.27 1.21 1.06 1.16 1.16 1.32 1.76 1.82 1.68 1.58 1.72 1.79 1.81 1.84 1.78 1.50 1.28 1.19 1.14 1.12 1.15 1.18 1.04 0.97 0.91 0.84 0.83 0.84 0.85 0.83 0.88
2.77 2.90 3.16 2.83 2.53 2.26 2.17 1.59 1.34 1.23 0.95 0.79 0.76 1.00 1.58 1.86 1.58 1.42 1.28 1.33 1.30 1.27 1.16 1.11 1.51 1.66 1.61 1.59 1.66 1.73 1.75 1.75 1.75 1.52 1.31 1.21 1.14 1.09 1.17 1.24 1.11 1.02 0.91 0.86 0.87 0.90 0.94 0.93 0.91
2.70 2.80 2.91 2.43 2.45 2.64 2.31 1.63 1.43 1.20 1.08 0.88 0.71 1.10 1.66 1.95 1.64 1.42 1.37 1.41 1.50 1.45 1.36 1.20 1.26 1.41 1.64 1.71 1.67 1.61 1.55 1.58 1.61 1.38 1.25 1.15 1.09 1.02 1.08 1.14 1.07 1.04 1.02 0.99 0.93 0.98 1.03 0.96 0.96
2.01 2.28 2.42 2.37 2.50 2.72 2.00 1.50 1.17 1.02 0.94 0.72 0.65 1.04 1.46 1.49 1.39 1.38 1.53 1.69 1.83 1.64 1.50 1.26 1.19 1.24 1.29 1.42 1.55 1.61 1.58 1.55 1.54 1.32 1.17 1.09 1.03 0.93 0.98 0.94 0.94 1.01 1.11 1.20 1.15 1.13 1.09 1.08 1.02
1.84 2.43 2.76 2.77 2.50 2.14 1.40 1.25 1.05 0.82 0.85 0.77 0.61 0.66 0.83 0.92 1.07 1.27 1.35 1.49 1.59 1.36 1.27 1.30 1.30 1.30 1.31 1.26 1.33 1.54 1.59 1.56 1.38 1.27 1.16 1.04 0.82 0.71 0.78 0.79 0.98 1.12 1.28 1.36 1.37 1.31 1.26 1.15 1.00
1.90 2.61 2.65 2.10 1.83 1.55 1.12 1.07 0.97 0.95 0.98 0.91 0.70 0.68 0.80 0.86 1.05 1.20 1.13 1.13 1.07 1.00 0.96 1.05 1.13 1.28 1.31 1.18 1.38 1.61 1.44 1.28 1.04 1.05 0.93 0.90 0.83 0.79 0.66 0.74 1.03 1.20 1.27 1.28 1.39 1.47 1.29 1.00 0.74
1.55 2.05 1.87 1.65 1.41 1.20 1.04 1.06 0.92 0.96 1.08 0.94 0.75 0.75 0.93 1.01 1.00 0.96 0.92 0.92 0.86 0.86 0.83 0.82 0.90 1.01 1.11 1.25 1.49 1.76 1.80 1.55 1.32 1.10 1.00 0.97 0.85 0.75 0.69 0.69 0.79 0.91 0.98 0.93 0.98 1.00 0.86 0.76 0.70
1.36 1.33 1.35 1.56 1.29 1.20 1.01 0.99 1.00 0.95 0.98 0.84 0.70 0.71 0.86 1.02 1.04 0.89 0.73 0.68 0.64 0.70 0.80 0.67 0.60 0.77 0.94 1.05 1.18 1.43 1.49 1.41 1.25 1.04 0.95 1.00 0.94 0.82 0.79 0.76 0.82 0.84 0.85 0.95 0.96 1.00 0.94 0.77 0.69
1.65 1.43 1.22 1.20 1.22 1.26 1.06 0.99 0.99 0.96 0.85 0.75 0.71 0.82 0.89 0.88 0.87 0.80 0.66 0.57 0.59 0.70 0.78 0.71 0.61 0.62 0.69 0.76 0.86 0.98 1.15 1.23 1.20 1.13 0.94 0.93 0.92 0.87 0.89 0.84 0.86 0.78 0.77 0.88 0.96 0.99 1.00 0.91 0.77
1.46 1.31 1.29 1.27 1.21 1.20 1.19 0.98 0.98 1.15 0.87 0.78 0.82 0.91 0.87 0.80 0.79 0.84 0.72 0.63 0.58 0.62 0.75 0.75 0.67 0.64 0.67 0.65 0.66 0.67 0.83 0.98 1.10 1.08 0.97 0.97 0.97 0.92 0.96 0.91 0.91 0.88 0.81 0.86 1.06 1.02 1.04 1.02 0.94
1.34 1.49 1.43 1.34 1.25 1.25 1.19 1.27 1.17 1.09 0.92 0.86 0.86 0.84 0.82 0.76 0.75 0.84 0.77 0.65 0.58 0.58 0.64 0.71 0.71 0.73 0.75 0.72 0.71 0.60 0.64 0.73 0.87 0.98 0.97 1.01 0.95 0.87 0.91 0.91 0.88 0.88 0.90 0.93 1.01 1.02 1.07 0.99 0.92
1.63 1.77 1.85 1.56 1.36 1.19 1.21 1.56 1.41 1.16 0.98 0.99 0.93 0.82 0.79 0.74 0.68 0.73 0.72 0.70 0.66 0.65 0.69 0.75 0.78 0.81 0.82 0.82 0.82 0.76 0.81 0.88 0.91 1.03 0.99 0.94 0.97 0.93 0.92 0.95 0.97 1.01 1.05 1.04 1.08 1.13 1.12 1.07 1.07
1.79 1.76 1.61 1.51 1.25 1.05 1.09 1.33 1.34 1.21 0.99 0.87 0.82 0.72 0.64 0.56 0.52 0.51 0.53 0.54 0.59 0.60 0.63 0.67 0.77 0.80 0.81 0.84 0.91 1.03 1.08 1.10 1.08 1.12 1.06 0.96 0.95 0.98 1.07 1.10 1.17 1.14 1.17 1.21 1.18 1.21 1.12 1.13 1.16
1.73 1.42 1.20 1.16 1.10 0.97 0.90 1.00 1.05 1.08 0.94 0.75 0.64 0.56 0.51 0.42 0.39 0.36 0.35 0.37 0.43 0.49 0.53 0.58 0.65 0.82 0.94 0.97 0.97 1.11 1.18 1.26 1.35 1.39 1.28 1.14 1.16 1.28 1.42 1.50 1.44 1.43 1.45 1.46 1.42 1.49 1.38 1.22 1.25
1.27 1.22 1.08 0.92 0.90 0.91 0.83 0.82 0.87 0.86 0.83 0.70 0.55 0.44 0.40 0.34 0.27 0.25 0.23 0.26 0.29 0.33 0.40 0.46 0.52 0.70 0.82 0.88 0.98 1.16 1.34 1.52 1.67 1.77 1.66 1.53 1.48 1.65 1.78 1.71 1.79 1.83 1.71 1.72 1.78 1.84 1.79 1.57 1.43
1.10 1.12 0.99 0.84 0.72 0.72 0.72 0.74 0.77 0.73 0.72 0.60 0.47 0.39 0.31 0.24 0.22 0.18 0.14 0.15 0.19 0.22 0.26 0.32 0.39 0.49 0.62 0.78 1.01 1.21 1.50 1.60 1.68 1.80 1.84 1.78 1.72 1.88 1.92 2.01 2.10 2.15 2.14 2.09 1.99 2.09 2.19 1.94 1.70
0.91 0.96 0.88 0.80 0.68 0.63 0.61 0.76 0.75 0.68 0.64 0.56 0.43 0.34 0.25 0.19 0.17 0.13 0.11 0.11 0.16 0.17 0.19 0.26 0.38 0.50 0.71 0.95 1.26 1.55 1.79 1.87 1.92 1.86 1.91 1.99 2.04 2.11 2.14 2.19 2.27 2.30 2.16 2.16 2.25 2.37 2.72 2.53 2.16
0.87 0.66 0.59 0.58 0.66 0.66 0.59 0.84 0.65 0.55 0.55 0.49 0.41 0.37 0.29 0.20 0.16 0.13 0.12 0.12 0.13 0.17 0.22 0.34 0.51 0.70 0.96 1.29 1.64 1.88 2.11 2.22 2.07 2.04 2.07 2.07 2.02 2.05 2.16 2.17 2.17 2.16 2.10 2.18 2.25 2.30 2.69 2.88 2.60
0.58 0.50 0.58 0.59 0.57 0.50 0.40 0.55 0.54 0.46 0.51 0.42 0.34 0.34 0.33 0.27 0.20 0.18 0.18 0.19 0.22 0.30 0.37 0.53 0.78 1.08 1.36 1.59 1.77 1.97 2.09 2.12 2.10 2.06 2.05 1.97 1.94 1.91 1.94 1.96 2.06 2.10 2.14 2.20 2.36 2.49 2.73 2.76 2.75
0.41 0.49 0.62 0.63 0.62 0.64 0.35 0.43 0.53 0.44 0.42 0.37 0.33 0.30 0.27 0.25 0.24 0.25 0.27 0.34 0.41 0.46 0.60 0.78 0.97 1.26 1.44 1.55 1.66 1.83 1.98 2.03 2.04 2.02 2.02 2.02 1.99 1.89 1.83 1.80 1.87 2.00 2.16 2.21 2.31 2.45 2.69 2.80 2.89
0.40 0.66 0.93 0.97 0.92 0.69 0.34 0.50 0.59 0.45 0.35 0.32 0.32 0.31 0.27 0.31 0.35 0.35 0.43 0.56 0.65 0.69 0.78 0.93 1.03 1.21 1.32 1.36 1.43 1.57 1.64 1.70 1.76 1.74 1.71 1.65 1.62 1.62 1.66 1.74 1.82 1.95 2.06 2.13 2.25 2.40 2.45 2.56 2.80
0.36 0.56 0.93 1.01 0.87 0.63 0.47 0.71 0.66 0.44 0.35 0.33 0.33 0.31 0.33 0.44 0.53 0.62 0.74 0.83 0.90 0.90 0.88 0.91 1.05 1.10 1.08 1.10 1.10 1.23 1.31 1.37 1.43 1.43 1.42 1.46 1.51 1.54 1.49 1.53 1.61 1.82 2.01 2.09 2.19 2.21 2.18 2.23 2.42
0.35 0.39 0.46 0.66 0.61 0.64 0.61 0.80 0.75 0.45 0.39 0.34 0.34 0.36 0.42 0.58 0.77 0.98 1.15 1.25 1.32 1.24 1.05 0.92 0.93 0.93 0.90 0.96 0.99 1.06 1.14 1.18 1.21 1.24 1.19 1.28 1.34 1.34 1.30 1.33 1.36 1.47 1.68 1.93 2.09 2.04 1.95 1.91 2.07
0.30 0.40 0.51 0.76 0.93 0.89 0.80 0.93 0.92 0.65 0.53 0.45 0.46 0.56 0.70 0.91 1.19 1.45 1.67 1.78 1.75 1.57 1.31 1.04 0.87 0.84 0.81 0.84 0.90 0.96 1.00 1.00 0.99 1.02 0.97 1.02 1.12 1.12 1.12 1.12 1.19 1.33 1.45 1.64 1.87 1.96 1.89 1.87 1.93
0.33 0.47 0.59 0.75 0.83 1.04 1.17 1.20 0.97 0.87 0.76 0.73 0.80 0.96 1.16 1.43 1.62 1.77 1.92 1.96 1.70 1.53 1.29 1.03 0.87 0.89 0.90 0.92 0.93 0.92 0.88 0.86 0.84 0.82 0.79 0.84 0.91 0.91 0.94 1.11 1.18 1.24 1.32 1.51 1.77 1.95 1.96 1.89 1.88
0.44 0.65 0.84 1.15 1.07 1.02 1.23 1.29 0.93 0.86 0.90 0.93 1.04 1.10 1.22 1.37 1.38 1.46 1.54 1.50 1.46 1.40 1.23 1.06 0.96 0.97 1.01 1.03 1.05 0.97 0.87 0.81 0.78 0.75 0.68 0.69 0.67 0.66 0.78 0.92 0.97 1.02 1.06 1.24 1.53 1.73 1.78 1.76 1.67

GEFSSGP_prec_meanprecacc_246.txt.gz
Total_Precipitation_Accumulation
2.26 2.19 2.71 3.67 4.14 3.63 3.21 2.55 2.16 2.05 1.76 1.40 1.09 1.07 1.33 1.73 2.14 2.47 2.70 2.55 1.80 1.42 1.48 2.18 2.77 2.49 2.02 1.73 1.63 1.65 1.58 1.64 1.57 1.51 1.35 1.26 1.13 1.00 0.85 0.76 0.80 0.80 0.73 0.68 0.67 0.76 0.78 0.79 0.96
1.69 2.51 3.30 4.17 3.72 3.06 2.95 2.55 2.33 1.94 1.39 1.12 0.83 0.78 0.90 0.93 0.95 1.46 2.54 2.51 1.62 1.31 1.37 1.65 2.29 2.17 1.78 1.58 1.57 1.68 1.64 1.72 1.63 1.46 1.30 1.19 1.18 1.11 1.00 0.94 1.02 0.82 0.73 0.70 0.71 0.79 0.86 0.83 0.95
1.83 2.90 3.84 4.05 2.93 2.65 2.76 2.58 2.18 1.61 1.15 1.04 0.84 0.77 0.96 1.15 1.17 1.62 2.26 1.83 1.39 1.28 1.34 1.79 2.28 2.05 1.78 1.59 1.66 1.73 1.74 1.74 1.55 1.33 1.16 1.17 1.20 1.18 1.17 1.17 1.11 0.85 0.76 0.70 0.70 0.79 0.83 0.84 0.90
2.12 3.20 3.49 3.25 2.67 2.25 2.26 2.27 1.79 1.45 1.13 0.79 0.77 0.81 0.85 1.19 1.21 1.48 1.55 1.32 1.18 1.29 1.35 1.69 2.14 2.00 1.78 1.61 1.69 1.74 1.80 1.78 1.67 1.42 1.19 1.19 1.20 1.19 1.16 1.22 1.08 0.95 0.84 0.73 0.73 0.79 0.85 0.85 0.88
2.50 3.31 3.29 2.90 2.60 2.24 1.90 1.61 1.40 1.30 1.13 0.86 0.74 0.94 1.24 1.58 1.39 1.32 1.29 1.23 1.09 1.20 1.22 1.40 1.84 1.88 1.73 1.64 1.79 1.86 1.88 1.93 1.86 1.58 1.37 1.28 1.20 1.19 1.20 1.25 1.11 1.02 0.94 0.88 0.87 0.89 0.90 0.87 0.91
2.78 2.90 3.17 2.83 2.54 2.28 2.19 1.62 1.39 1.27 0.99 0.83 0.80 1.03 1.63 1.91 1.60 1.44 1.30 1.36 1.33 1.31 1.20 1.15 1.56 1.73 1.68 1.67 1.74 1.81 1.84 1.85 1.83 1.58 1.41 1.30 1.20 1.15 1.24 1.30 1.15 1.08 0.96 0.90 0.92 0.94 0.98 0.95 0.93
2.71 2.81 2.92 2.44 2.46 2.64 2.32 1.65 1.47 1.24 1.12 0.91 0.73 1.12 1.70 2.00 1.67 1.43 1.39 1.44 1.53 1.48 1.40 1.22 1.28 1.46 1.68 1.76 1.74 1.69 1.65 1.68 1.73 1.50 1.36 1.24 1.17 1.09 1.14 1.20 1.12 1.10 1.08 1.04 0.99 1.03 1.06 0.97 0.98
2.01 2.29 2.43 2.39 2.51 2.73 2.02 1.52 1.19 1.06 0.99 0.78 0.68 1.08 1.52 1.53 1.43 1.42 1.56 1.71 1.85 1.67 1.52 1.29 1.22 1.28 1.32 1.47 1.60 1.70 1.72 1.68 1.72 1.49 1.29 1.19 1.11 1.00 1.04 1.01 1.00 1.08 1.17 1.25 1.22 1.19 1.12 1.10 1.03
1.84 2.45 2.79 2.80 2.52 2.15 1.41 1.26 1.07 0.84 0.89 0.81 0.66 0.71 0.88 0.96 1.09 1.30 1.40 1.53 1.63 1.39 1.29 1.33 1.33 1.32 1.34 1.28 1.35 1.59 1.69 1.69 1.56 1.43 1.28 1.12 0.88 0.77 0.84 0.86 1.08 1.20 1.35 1.42 1.43 1.37 1.29 1.17 1.02
1.91 2.62 2.66 2.12 1.85 1.56 1.12 1.08 0.97 0.96 1.01 0.94 0.73 0.70 0.81 0.87 1.07 1.23 1.16 1.16 1.11 1.03 1.00 1.08 1.14 1.29 1.32 1.19 1.40 1.65 1.49 1.39 1.16 1.16 1.00 0.96 0.89 0.84 0.70 0.81 1.13 1.29 1.34 1.34 1.43 1.50 1.30 1.01 0.76
1.55 2.07 1.88 1.66 1.42 1.20 1.04 1.07 0.93 0.97 1.10 0.96 0.77 0.76 0.94 1.02 1.01 0.97 0.93 0.94 0.89 0.88 0.85 0.84 0.91 1.02 1.12 1.27 1.51 1.78 1.83 1.63 1.40 1.17 1.06 1.01 0.89 0.79 0.74 0.76 0.86 0.97 1.03 0.96 1.01 1.02 0.87 0.77 0.71
1.37 1.35 1.36 1.56 1.30 1.21 1.02 1.00 1.00 0.96 1.00 0.86 0.72 0.72 0.88 1.03 1.05 0.90 0.75 0.69 0.66 0.72 0.82 0.68 0.60 0.78 0.95 1.06 1.19 1.45 1.52 1.44 1.32 1.12 1.01 1.06 1.00 0.88 0.86 0.83 0.86 0.88 0.88 0.97 0.97 1.01 0.95 0.78 0.69
1.66 1.44 1.23 1.21 1.23 1.28 1.08 1.01 1.00 0.97 0.86 0.77 0.73 0.84 0.91 0.89 0.89 0.82 0.67 0.58 0.61 0.72 0.80 0.73 0.62 0.63 0.70 0.76 0.87 0.99 1.16 1.26 1.26 1.19 1.00 0.99 1.00 0.95 0.94 0.87 0.89 0.80 0.79 0.89 0.97 1.00 1.01 0.92 0.78
1.48 1.32 1.31 1.29 1.23 1.23 1.23 0.99 0.98 1.16 0.87 0.79 0.83 0.92 0.89 0.81 0.80 0.86 0.74 0.65 0.60 0.64 0.77 0.77 0.68 0.66 0.68 0.66 0.67 0.68 0.83 0.99 1.11 1.11 1.01 1.04 1.04 0.96 0.99 0.95 0.94 0.90 0.83 0.87 1.07 1.03 1.06 1.03 0.94
1.36 1.51 1.45 1.37 1.28 1.28 1.22 1.29 1.18 1.11 0.93 0.87 0.87 0.86 0.84 0.78 0.77 0.86 0.79 0.67 0.60 0.60 0.66 0.73 0.72 0.75 0.78 0.74 0.73 0.61 0.65 0.74 0.88 1.00 1.01 1.07 1.01 0.91 0.95 0.95 0.91 0.90 0.92 0.95 1.02 1.04 1.09 0.99 0.93
1.65 1.79 1.88 1.60 1.39 1.21 1.23 1.57 1.43 1.17 0.99 1.01 0.95 0.84 0.81 0.77 0.71 0.75 0.74 0.72 0.68 0.67 0.71 0.78 0.80 0.83 0.85 0.84 0.85 0.79 0.82 0.88 0.92 1.05 1.01 0.98 1.04 1.00 0.99 1.00 1.00 1.03 1.08 1.07 1.09 1.15 1.14 1.08 1.09
1.80 1.79 1.65 1.54 1.28 1.07 1.10 1.34 1.35 1.22 1.00 0.88 0.86 0.77 0.67 0.59 0.54 0.53 0.54 0.56 0.60 0.61 0.64 0.70 0.80 0.82 0.83 0.85 0.93 1.05 1.10 1.11 1.09 1.13 1.08 0.99 0.99 1.03 1.13 1.16 1.20 1.17 1.20 1.22 1.19 1.22 1.13 1.14 1.17
1.75 1.44 1.23 1.19 1.12 0.99 0.91 1.00 1.06 1.09 0.95 0.76 0.65 0.60 0.57 0.48 0.42 0.38 0.36 0.38 0.44 0.50 0.54 0.59 0.66 0.82 0.96 0.99 0.99 1.13 1.20 1.27 1.36 1.41 1.29 1.16 1.19 1.31 1.47 1.55 1.47 1.46 1.47 1.47 1.44 1.50 1.39 1.25 1.28
1.28 1.24 1.10 0.94 0.91 0.93 0.84 0.83 0.88 0.87 0.84 0.71 0.57 0.45 0.42 0.38 0.31 0.27 0.24 0.27 0.31 0.35 0.40 0.47 0.53 0.70 0.83 0.89 0.99 1.18 1.36 1.53 1.68 1.79 1.68 1.54 1.50 1.68 1.81 1.74 1.82 1.84 1.73 1.74 1.80 1.86 1.80 1.59 1.46
1.11 1.13 1.00 0.85 0.73 0.72 0.73 0.75 0.78 0.74 0.73 0.61 0.49 0.40 0.32 0.26 0.23 0.19 0.15 0.16 0.20 0.23 0.27 0.33 0.40 0.50 0.63 0.79 1.02 1.22 1.52 1.61 1.70 1.82 1.86 1.79 1.73 1.89 1.94 2.02 2.11 2.16 2.16 2.10 2.01 2.14 2.26 1.99 1.73
0.91 0.98 0.89 0.80 0.69 0.64 0.61 0.76 0.75 0.69 0.65 0.57 0.44 0.35 0.27 0.21 0.18 0.13 0.12 0.12 0.17 0.18 0.19 0.26 0.38 0.50 0.71 0.95 1.27 1.56 1.81 1.89 1.93 1.87 1.92 2.00 2.04 2.11 2.15 2.20 2.28 2.31 2.16 2.17 2.27 2.41 2.74 2.54 2.17
0.88 0.66 0.60 0.59 0.67 0.67 0.59 0.85 0.65 0.55 0.55 0.50 0.42 0.38 0.30 0.21 0.16 0.14 0.13 0.12 0.13 0.17 0.22 0.34 0.51 0.70 0.96 1.29 1.65 1.89 2.13 2.23 2.08 2.05 2.08 2.08 2.03 2.06 2.18 2.18 2.18 2.16 2.11 2.18 2.25 2.31 2.71 2.90 2.61
0.59 0.51 0.59 0.60 0.59 0.52 0.41 0.56 0.55 0.46 0.52 0.43 0.35 0.35 0.34 0.28 0.21 0.18 0.19 0.19 0.23 0.30 0.38 0.54 0.79 1.09 1.37 1.60 1.78 1.98 2.11 2.14 2.11 2.06 2.05 1.99 1.95 1.93 1.96 1.97 2.06 2.10 2.15 2.20 2.37 2.49 2.75 2.78 2.77
0.42 0.50 0.63 0.65 0.65 0.66 0.36 0.44 0.54 0.44 0.42 0.37 0.33 0.31 0.28 0.26 0.25 0.25 0.28 0.34 0.41 0.47 0.61 0.79 0.98 1.27 1.45 1.56 1.67 1.85 2.00 2.05 2.05 2.02 2.02 2.02 2.00 1.90 1.84 1.81 1.88 2.01 2.17 2.22 2.31 2.46 2.70 2.82 2.90
0.41 0.67 0.95 0.98 0.93 0.70 0.35 0.50 0.60 0.45 0.36 0.32 0.32 0.31 0.28 0.32 0.35 0.35 0.43 0.57 0.66 0.69 0.79 0.94 1.04 1.23 1.34 1.38 1.45 1.59 1.65 1.71 1.77 1.75 1.71 1.66 1.62 1.63 1.68 1.75 1.83 1.96 2.07 2.14 2.26 2.40 2.46 2.57 2.81
0.37 0.57 0.94 1.02 0.88 0.64 0.47 0.71 0.66 0.44 0.35 0.33 0.33 0.31 0.33 0.44 0.53 0.62 0.74 0.83 0.90 0.91 0.89 0.93 1.07 1.12 1.10 1.12 1.12 1.25 1.33 1.39 1.45 1.44 1.43 1.46 1.51 1.54 1.50 1.54 1.62 1.83 2.02 2.10 2.20 2.22 2.19 2.24 2.43
0.36 0.40 0.46 0.66 0.62 0.65 0.62 0.80 0.75 0.45 0.39 0.34 0.34 0.36 0.43 0.58 0.77 0.98 1.15 1.25 1.32 1.24 1.06 0.93 0.94 0.94 0.92 0.98 1.02 1.08 1.16 1.20 1.22 1.24 1.19 1.29 1.34 1.35 1.31 1.34 1.37 1.48 1.69 1.94 2.09 2.05 1.96 1.92 2.08
0.30 0.40 0.52 0.77 0.94 0.90 0.81 0.94 0.92 0.65 0.53 0.45 0.46 0.56 0.70 0.91 1.20 1.45 1.67 1.79 1.76 1.57 1.32 1.04 0.88 0.85 0.82 0.86 0.92 0.99 1.02 1.02 1.00 1.04 0.97 1.03 1.12 1.12 1.12 1.12 1.20 1.34 1.45 1.65 1.87 1.96 1.89 1.87 1.93
0.34 0.48 0.60 0.76 0.83 1.05 1.18 1.20 0.97 0.87 0.76 0.73 0.80 0.96 1.17 1.43 1.62 1.77 1.92 1.97 1.71 1.53 1.29 1.04 0.88 0.89 0.91 0.93 0.95 0.94 0.89 0.87 0.85 0.83 0.80 0.84 0.91 0.91 0.94 1.11 1.18 1.24 1.32 1.51 1.78 1.96 1.97 1.89 1.89
0.45 0.65 0.85 1.16 1.07 1.02 1.24 1.29 0.93 0.86 0.90 0.93 1.05 1.11 1.23 1.38 1.39 1.47 1.55 1.51 1.47 1.41 1.23 1.06 0.97 0.97 1.02 1.04 1.06 0.98 0.89 0.82 0.79 0.76 0.68 0.69 0.67 0.67 0.79 0.92 0.97 1.02 1.07 1.25 1.54 1.74 1.78 1.76 1.67

GEFSSGP_prec_meanprecacc_252.txt.gz
Total_Precipitation_Accumulation
2.30 2.21 2.74 3.71 4.25 3.75 3.33 2.64 2.24 2.09 1.77 1.41 1.10 1.08 1.35 1.76 2.19 2.55 2.79 2.62 1.83 1.44 1.49 2.20 2.80 2.55 2.07 1.77 1.67 1.69 1.62 1.68 1.61 1.55 1.38 1.30 1.18 1.06 0.91 0.81 0.85 0.85 0.78 0.73 0.70 0.78 0.80 0.81 0.98
1.72 2.54 3.35 4.24 3.83 3.17 3.06 2.64 2.40 1.98 1.41 1.14 0.85 0.79 0.90 0.94 0.97 1.51 2.61 2.57 1.65 1.32 1.39 1.67 2.32 2.23 1.84 1.62 1.60 1.70 1.67 1.76 1.68 1.52 1.34 1.24 1.23 1.16 1.04 0.99 1.06 0.87 0.78 0.74 0.75 0.82 0.90 0.86 0.97
1.84 2.93 3.89 4.13 3.02 2.75 2.84 2.64 2.21 1.63 1.16 1.06 0.86 0.78 0.97 1.16 1.19 1.66 2.32 1.86 1.41 1.30 1.37 1.81 2.31 2.10 1.83 1.62 1.68 1.77 1.78 1.78 1.60 1.40 1.21 1.22 1.25 1.22 1.21 1.21 1.15 0.90 0.81 0.75 0.76 0.83 0.88 0.87 0.92
2.15 3.25 3.55 3.32 2.73 2.31 2.31 2.30 1.81 1.46 1.14 0.81 0.80 0.84 0.87 1.21 1.25 1.52 1.59 1.36 1.21 1.31 1.39 1.72 2.18 2.05 1.81 1.64 1.73 1.78 1.85 1.84 1.74 1.49 1.25 1.23 1.24 1.23 1.22 1.27 1.13 0.99 0.87 0.76 0.77 0.84 0.89 0.88 0.89
2.54 3.39 3.37 2.95 2.63 2.27 1.93 1.62 1.42 1.33 1.14 0.88 0.76 0.98 1.28 1.60 1.41 1.35 1.33 1.27 1.12 1.22 1.24 1.43 1.90 1.92 1.76 1.68 1.84 1.90 1.92 1.99 1.95 1.66 1.44 1.34 1.26 1.24 1.26 1.30 1.16 1.08 0.98 0.91 0.92 0.93 0.93 0.89 0.92
2.83 2.98 3.24 2.89 2.57 2.30 2.22 1.64 1.41 1.30 1.03 0.86 0.82 1.05 1.66 1.93 1.61 1.45 1.31 1.39 1.35 1.33 1.22 1.18 1.60 1.77 1.72 1.70 1.78 1.85 1.88 1.89 1.89 1.66 1.51 1.39 1.27 1.20 1.29 1.35 1.22 1.14 1.00 0.94 0.95 0.98 1.01 0.98 0.95
2.76 2.88 2.98 2.48 2.50 2.67 2.34 1.66 1.48 1.27 1.16 0.94 0.75 1.14 1.74 2.03 1.69 1.44 1.39 1.44 1.54 1.49 1.43 1.27 1.31 1.49 1.70 1.78 1.77 1.73 1.70 1.73 1.78 1.56 1.48 1.35 1.23 1.13 1.17 1.24 1.17 1.15 1.12 1.09 1.03 1.07 1.09 1.01 1.01
2.03 2.34 2.47 2.42 2.55 2.76 2.03 1.52 1.20 1.07 1.02 0.80 0.69 1.10 1.56 1.56 1.45 1.43 1.57 1.72 1.86 1.68 1.55 1.33 1.26 1.32 1.36 1.50 1.63 1.73 1.76 1.74 1.77 1.55 1.39 1.29 1.18 1.04 1.08 1.04 1.03 1.12 1.22 1.29 1.26 1.22 1.15 1.13 1.05
1.86 2.49 2.83 2.83 2.55 2.17 1.42 1.26 1.07 0.86 0.91 0.83 0.67 0.72 0.89 0.97 1.13 1.33 1.42 1.55 1.65 1.41 1.33 1.38 1.38 1.37 1.39 1.33 1.37 1.62 1.72 1.73 1.61 1.52 1.37 1.22 0.95 0.80 0.87 0.89 1.11 1.23 1.38 1.44 1.46 1.40 1.31 1.20 1.04
1.93 2.67 2.70 2.14 1.86 1.57 1.13 1.09 0.98 0.98 1.02 0.96 0.75 0.72 0.83 0.89 1.09 1.26 1.19 1.19 1.14 1.07 1.05 1.15 1.19 1.33 1.36 1.23 1.43 1.70 1.54 1.44 1.22 1.25 1.09 1.04 0.94 0.87 0.73 0.84 1.17 1.33 1.38 1.37 1.46 1.53 1.32 1.04 0.78
1.57 2.10 1.91 1.67 1.42 1.20 1.04 1.08 0.94 0.98 1.12 0.97 0.78 0.77 0.96 1.04 1.04 1.01 0.97 1.00 0.93 0.92 0.89 0.88 0.94 1.03 1.14 1.30 1.53 1.81 1.87 1.68 1.47 1.22 1.11 1.08 0.95 0.84 0.77 0.79 0.89 1.01 1.07 0.99 1.04 1.05 0.89 0.79 0.72
1.38 1.36 1.38 1.57 1.30 1.22 1.03 1.00 1.01 0.97 1.02 0.87 0.72 0.73 0.89 1.05 1.09 0.94 0.80 0.75 0.70 0.76 0.86 0.71 0.62 0.79 0.96 1.07 1.20 1.47 1.54 1.48 1.37 1.15 1.05 1.10 1.06 0.94 0.91 0.86 0.89 0.91 0.93 1.00 0.99 1.03 0.97 0.79 0.70
1.67 1.45 1.23 1.21 1.23 1.30 1.09 1.02 1.01 0.98 0.87 0.77 0.73 0.84 0.91 0.91 0.91 0.85 0.71 0.62 0.64 0.76 0.83 0.75 0.64 0.63 0.71 0.77 0.88 1.02 1.19 1.29 1.29 1.22 1.03 1.04 1.07 1.02 1.01 0.92 0.93 0.84 0.82 0.92 0.99 1.01 1.03 0.93 0.79
1.49 1.32 1.31 1.30 1.23 1.24 1.24 1.00 1.00 1.17 0.88 0.79 0.85 0.93 0.90 0.83 0.82 0.89 0.78 0.68 0.62 0.67 0.79 0.78 0.69 0.67 0.69 0.67 0.68 0.70 0.85 1.01 1.13 1.14 1.05 1.08 1.09 1.03 1.06 1.00 0.96 0.92 0.85 0.90 1.09 1.05 1.08 1.04 0.94
1.38 1.52 1.46 1.38 1.29 1.29 1.23 1.31 1.19 1.11 0.93 0.88 0.93 0.90 0.86 0.80 0.79 0.89 0.81 0.70 0.63 0.63 0.69 0.75 0.74 0.77 0.79 0.75 0.73 0.62 0.66 0.75 0.89 1.01 1.02 1.08 1.03 0.94 0.99 0.99 0.92 0.92 0.94 0.96 1.04 1.06 1.10 1.00 0.93
1.67 1.82 1.91 1.62 1.40 1.22 1.25 1.60 1.44 1.18 0.99 1.01 0.98 0.87 0.83 0.79 0.73 0.77 0.76 0.75 0.70 0.69 0.73 0.79 0.81 0.83 0.86 0.87 0.86 0.79 0.83 0.89 0.93 1.06 1.02 0.99 1.04 1.01 1.01 1.04 1.01 1.05 1.09 1.08 1.11 1.17 1.16 1.09 1.10
1.84 1.83 1.69 1.57 1.29 1.08 1.12 1.37 1.36 1.22 1.00 0.89 0.87 0.79 0.69 0.61 0.56 0.54 0.55 0.57 0.62 0.62 0.65 0.71 0.80 0.83 0.85 0.87 0.94 1.07 1.11 1.12 1.11 1.14 1.08 0.99 1.00 1.04 1.15 1.20 1.23 1.19 1.22 1.24 1.21 1.24 1.15 1.15 1.18
1.78 1.47 1.26 1.22 1.14 1.01 0.93 1.02 1.07 1.09 0.95 0.76 0.66 0.62 0.60 0.50 0.45 0.40 0.37 0.38 0.45 0.50 0.55 0.60 0.68 0.84 0.96 1.00 1.01 1.16 1.22 1.30 1.39 1.43 1.30 1.17 1.20 1.33 1.50 1.59 1.50 1.49 1.50 1.49 1.46 1.52 1.40 1.27 1.30
1.30 1.26 1.13 0.95 0.92 0.95 0.86 0.84 0.89 0.87 0.84 0.72 0.58 0.46 0.44 0.40 0.35 0.31 0.27 0.28 0.32 0.36 0.41 0.49 0.55 0.72 0.84 0.91 1.02 1.21 1.38 1.56 1.71 1.80 1.69 1.54 1.51 1.69 1.83 1.77 1.86 1.87 1.75 1.77 1.84 1.89 1.84 1.63 1.47
1.12 1.15 1.01 0.86 0.74 0.73 0.74 0.76 0.79 0.75 0.73 0.62 0.50 0.41 0.33 0.27 0.25 0.21 0.16 0.17 0.21 0.24 0.28 0.35 0.43 0.51 0.65 0.82 1.04 1.25 1.55 1.64 1.71 1.83 1.86 1.79 1.73 1.91 1.96 2.04 2.14 2.18 2.18 2.14 2.03 2.16 2.31 2.03 1.75
0.93 0.99 0.89 0.81 0.70 0.64 0.62 0.77 0.76 0.70 0.66 0.58 0.44 0.36 0.28 0.22 0.18 0.14 0.13 0.13 0.18 0.19 0.20 0.27 0.39 0.51 0.73 0.98 1.29 1.59 1.85 1.93 1.97 1.91 1.94 2.01 2.06 2.14 2.17 2.22 2.29 2.32 2.17 2.17 2.28 2.42 2.76 2.56 2.18
0.89 0.67 0.60 0.60 0.69 0.70 0.61 0.89 0.67 0.56 0.56 0.51 0.42 0.38 0.30 0.22 0.17 0.14 0.14 0.14 0.15 0.18 0.23 0.36 0.52 0.71 0.98 1.31 1.67 1.92 2.18 2.30 2.13 2.08 2.09 2.09 2.05 2.08 2.19 2.20 2.20 2.17 2.11 2.19 2.26 2.32 2.73 2.93 2.64
0.60 0.51 0.59 0.60 0.61 0.54 0.42 0.59 0.56 0.46 0.52 0.44 0.36 0.36 0.35 0.28 0.22 0.19 0.20 0.21 0.25 0.32 0.39 0.55 0.80 1.09 1.37 1.60 1.80 2.02 2.16 2.19 2.14 2.07 2.06 1.99 1.96 1.94 1.98 2.00 2.09 2.11 2.16 2.21 2.37 2.50 2.77 2.80 2.79
0.42 0.51 0.64 0.66 0.67 0.70 0.37 0.46 0.56 0.45 0.42 0.38 0.34 0.32 0.28 0.26 0.26 0.26 0.28 0.36 0.43 0.49 0.63 0.81 1.00 1.29 1.46 1.57 1.68 1.86 2.02 2.07 2.07 2.04 2.04 2.04 2.02 1.92 1.85 1.82 1.89 2.03 2.18 2.23 2.32 2.48 2.72 2.83 2.91
0.41 0.70 1.00 1.05 0.99 0.73 0.35 0.51 0.61 0.46 0.36 0.32 0.32 0.32 0.29 0.32 0.36 0.35 0.43 0.58 0.67 0.71 0.81 0.97 1.06 1.25 1.36 1.38 1.46 1.60 1.67 1.73 1.77 1.77 1.73 1.67 1.64 1.64 1.68 1.76 1.84 1.98 2.08 2.15 2.27 2.42 2.47 2.59 2.82
0.37 0.59 0.99 1.08 0.93 0.67 0.48 0.71 0.66 0.44 0.35 0.33 0.33 0.31 0.33 0.44 0.53 0.62 0.74 0.84 0.91 0.93 0.90 0.94 1.09 1.13 1.12 1.13 1.13 1.25 1.33 1.39 1.46 1.45 1.43 1.47 1.52 1.55 1.51 1.55 1.63 1.84 2.03 2.11 2.21 2.23 2.20 2.26 2.44
0.36 0.41 0.47 0.68 0.64 0.69 0.64 0.81 0.75 0.45 0.39 0.34 0.34 0.36 0.43 0.58 0.77 0.98 1.15 1.26 1.33 1.26 1.07 0.94 0.95 0.95 0.94 1.01 1.03 1.09 1.17 1.20 1.22 1.25 1.20 1.29 1.34 1.35 1.31 1.35 1.38 1.48 1.70 1.94 2.10 2.06 1.97 1.94 2.09
0.30 0.41 0.53 0.79 0.98 0.95 0.83 0.95 0.93 0.65 0.53 0.45 0.46 0.56 0.71 0.91 1.20 1.46 1.68 1.79 1.76 1.58 1.32 1.05 0.90 0.86 0.84 0.88 0.94 1.00 1.03 1.03 1.01 1.05 0.98 1.03 1.13 1.13 1.12 1.13 1.20 1.34 1.45 1.65 1.87 1.97 1.90 1.88 1.94
0.34 0.49 0.60 0.78 0.85 1.09 1.22 1.23 0.98 0.87 0.76 0.73 0.80 0.96 1.17 1.44 1.63 1.78 1.94 1.98 1.72 1.54 1.30 1.05 0.90 0.91 0.93 0.94 0.96 0.96 0.91 0.89 0.87 0.84 0.81 0.85 0.92 0.91 0.94 1.12 1.18 1.24 1.32 1.52 1.79 1.96 1.97 1.89 1.89
0.45 0.65 0.85 1.18 1.09 1.04 1.26 1.31 0.94 0.86 0.90 0.93 1.05 1.11 1.23 1.39 1.41 1.49 1.57 1.53 1.49 1.43 1.24 1.07 0.98 0.99 1.04 1.06 1.07 0.99 0.91 0.85 0.80 0.77 0.69 0.70 0.68 0.67 0.79 0.92 0.97 1.03 1.07 1.25 1.54 1.74 1.79 1.77 1.68